Time,TemperatureF,DewpointF,PressureIn,WindDirection,WindDirectionDegrees,WindSpeedMPH,WindSpeedGustMPH,Humidity,HourlyPrecipIn,Conditions,Clouds,dailyrainin,SoftwareType,DateUTC
2013-05-12 00:00:00,35.2,18.5,28.97,NW,315,6.3,6.5,50,0.00,,---,0.00,VWS V14.01,2013-05-12 05:00:00,
2013-05-12 00:01:00,35.1,18.8,28.97,NW,315,6.7,6.7,51,0.00,,---,0.00,VWS V14.01,2013-05-12 05:01:00,
2013-05-12 00:05:00,35.1,18.3,28.97,NW,315,7.6,7.8,50,0.00,,---,0.00,VWS V14.01,2013-05-12 05:05:00,
2013-05-12 00:06:00,35.1,18.8,28.97,NW,315,7.6,8.1,51,0.00,,---,0.00,VWS V14.01,2013-05-12 05:06:00,
2013-05-12 00:07:00,35.1,18.8,28.97,NW,315,5.8,6.9,51,0.00,,---,0.00,VWS V14.01,2013-05-12 05:07:00,
2013-05-12 00:10:00,35.1,18.8,28.97,NW,315,8.1,8.1,51,0.00,,---,0.00,VWS V14.01,2013-05-12 05:10:00,
2013-05-12 00:11:00,34.9,18.6,28.97,NW,315,6.3,7.8,51,0.00,,---,0.00,VWS V14.01,2013-05-12 05:11:00,
2013-05-12 00:15:00,35.1,18.8,28.97,NW,315,7.8,8.1,51,0.00,,---,0.00,VWS V14.01,2013-05-12 05:15:00,
2013-05-12 00:16:00,34.9,18.6,28.97,NNW,338,6.0,6.5,51,0.00,,---,0.00,VWS V14.01,2013-05-12 05:16:00,
2013-05-12 00:20:00,34.9,18.6,28.97,NNW,338,6.0,7.8,51,0.00,,---,0.00,VWS V14.01,2013-05-12 05:20:00,
2013-05-12 00:21:00,34.7,18.4,29.00,NW,315,4.9,6.0,51,0.00,,---,0.00,VWS V14.01,2013-05-12 05:21:00,
2013-05-12 00:25:00,34.9,18.6,29.00,NW,315,6.0,6.5,51,0.00,,---,0.00,VWS V14.01,2013-05-12 05:25:00,
2013-05-12 00:26:00,34.5,18.7,29.00,NNW,338,4.3,5.8,52,0.00,,---,0.00,VWS V14.01,2013-05-12 05:26:00,
2013-05-12 00:30:00,34.7,18.9,29.00,WNW,292,5.6,6.0,52,0.00,,---,0.00,VWS V14.01,2013-05-12 05:30:00,
2013-05-12 00:31:00,34.3,18.5,29.00,NNW,338,4.0,4.3,52,0.00,,---,0.00,VWS V14.01,2013-05-12 05:31:00,
2013-05-12 00:35:00,34.3,18.6,29.00,NNW,338,3.8,5.8,52,0.00,,---,0.00,VWS V14.01,2013-05-12 05:35:00,
2013-05-12 00:36:00,34.5,18.7,29.00,NW,315,4.5,4.9,52,0.00,,---,0.00,VWS V14.01,2013-05-12 05:36:00,
2013-05-12 00:40:00,34.3,18.6,29.00,NNW,338,3.4,4.3,52,0.00,,---,0.00,VWS V14.01,2013-05-12 05:40:00,
2013-05-12 00:41:00,34.3,18.5,29.00,NW,315,4.9,6.0,52,0.00,,---,0.00,VWS V14.01,2013-05-12 05:41:00,
2013-05-12 00:45:00,34.5,18.7,29.00,NW,315,5.4,6.5,52,0.00,,---,0.00,VWS V14.01,2013-05-12 05:45:00,
2013-05-12 00:46:00,34.0,18.2,29.00,NW,315,5.4,6.0,52,0.00,,---,0.00,VWS V14.01,2013-05-12 05:46:00,
2013-05-12 00:50:00,34.3,18.6,29.00,NW,315,6.0,6.3,52,0.00,,---,0.00,VWS V14.01,2013-05-12 05:50:00,
2013-05-12 00:51:00,34.0,18.2,29.00,NW,315,3.4,5.6,52,0.00,,---,0.00,VWS V14.01,2013-05-12 05:51:00,
2013-05-12 00:55:00,34.0,18.2,29.00,NW,315,5.4,6.0,52,0.00,,---,0.00,VWS V14.01,2013-05-12 05:55:00,
2013-05-12 00:56:00,33.8,18.0,29.00,NW,315,5.6,5.6,52,0.00,,---,0.00,VWS V14.01,2013-05-12 05:56:00,
2013-05-12 01:00:00,34.0,18.2,29.00,NNW,338,5.4,5.6,52,0.00,,---,0.00,VWS V14.01,2013-05-12 06:00:00,
2013-05-12 01:01:00,33.6,18.3,29.00,NW,315,4.9,5.8,53,0.00,,---,0.00,VWS V14.01,2013-05-12 06:01:00,
2013-05-12 01:05:00,33.8,18.0,29.00,NW,315,4.9,6.3,52,0.00,,---,0.00,VWS V14.01,2013-05-12 06:05:00,
2013-05-12 01:06:00,33.6,18.3,29.00,NNW,338,3.6,6.3,53,0.00,,---,0.00,VWS V14.01,2013-05-12 06:06:00,
2013-05-12 01:10:00,33.6,18.3,29.00,NW,315,5.4,5.8,53,0.00,,---,0.00,VWS V14.01,2013-05-12 06:10:00,
2013-05-12 01:11:00,33.6,18.3,29.00,NNW,338,3.4,4.3,53,0.00,,---,0.00,VWS V14.01,2013-05-12 06:11:00,
2013-05-12 01:15:00,33.6,18.3,29.00,NNW,338,3.4,6.3,53,0.00,,---,0.00,VWS V14.01,2013-05-12 06:15:00,
2013-05-12 01:16:00,33.6,18.3,29.00,NNW,338,3.1,4.3,53,0.00,,---,0.00,VWS V14.01,2013-05-12 06:16:00,
2013-05-12 01:20:00,33.6,18.3,29.00,NNW,338,3.4,4.3,53,0.00,,---,0.00,VWS V14.01,2013-05-12 06:20:00,
2013-05-12 01:21:00,33.6,18.3,29.00,NNW,338,3.8,4.0,53,0.00,,---,0.00,VWS V14.01,2013-05-12 06:21:00,
2013-05-12 01:25:00,33.6,18.3,29.00,NNW,338,4.0,4.3,53,0.00,,---,0.00,VWS V14.01,2013-05-12 06:25:00,
2013-05-12 01:26:00,33.6,18.3,29.00,NNW,338,3.4,4.0,53,0.00,,---,0.00,VWS V14.01,2013-05-12 06:26:00,
2013-05-12 01:31:00,33.6,18.3,29.00,NNW,338,3.8,4.0,53,0.00,,---,0.00,VWS V14.01,2013-05-12 06:31:00,
2013-05-12 01:35:00,33.6,18.3,29.00,NNW,338,4.0,4.3,53,0.00,,---,0.00,VWS V14.01,2013-05-12 06:35:00,
2013-05-12 01:36:00,33.6,18.8,29.00,NNW,338,4.7,4.7,54,0.00,,---,0.00,VWS V14.01,2013-05-12 06:36:00,
2013-05-12 01:40:00,33.6,18.3,29.00,NNW,338,2.7,4.0,53,0.00,,---,0.00,VWS V14.01,2013-05-12 06:40:00,
2013-05-12 01:41:00,34.0,18.7,29.00,North,0,3.4,4.7,53,0.00,,---,0.00,VWS V14.01,2013-05-12 06:41:00,
2013-05-12 01:45:00,33.6,18.3,29.00,North,0,3.4,4.7,53,0.00,,---,0.00,VWS V14.01,2013-05-12 06:45:00,
2013-05-12 01:46:00,34.3,19.0,29.00,North,0,2.9,5.6,53,0.00,,---,0.00,VWS V14.01,2013-05-12 06:46:00,
2013-05-12 01:50:00,34.0,18.7,29.00,NNW,338,5.6,5.6,53,0.00,,---,0.00,VWS V14.01,2013-05-12 06:50:00,
2013-05-12 01:51:00,34.9,19.5,29.00,NNW,338,2.5,6.3,53,0.00,,---,0.00,VWS V14.01,2013-05-12 06:51:00,
2013-05-12 01:55:00,34.5,19.2,29.00,North,0,3.4,5.6,53,0.00,,---,0.00,VWS V14.01,2013-05-12 06:55:00,
2013-05-12 01:56:00,35.2,19.8,29.00,NNE,22,3.1,5.4,53,0.00,,---,0.00,VWS V14.01,2013-05-12 06:56:00,
2013-05-12 02:00:00,35.1,19.7,29.00,NNW,338,2.0,6.3,53,0.00,,---,0.00,VWS V14.01,2013-05-12 07:00:00,
2013-05-12 02:01:00,35.1,19.2,29.00,NNW,338,2.5,4.3,52,0.00,,---,0.00,VWS V14.01,2013-05-12 07:01:00,
2013-05-12 02:05:00,35.2,19.4,29.00,North,0,3.6,5.4,52,0.00,,---,0.00,VWS V14.01,2013-05-12 07:05:00,
2013-05-12 02:06:00,35.2,19.4,29.00,NNE,22,3.6,4.3,52,0.00,,---,0.00,VWS V14.01,2013-05-12 07:06:00,
2013-05-12 02:10:00,35.1,19.2,29.00,North,0,3.4,4.9,52,0.00,,---,0.00,VWS V14.01,2013-05-12 07:10:00,
2013-05-12 02:11:00,35.1,19.2,29.00,North,0,3.1,4.3,52,0.00,,---,0.00,VWS V14.01,2013-05-12 07:11:00,
2013-05-12 02:16:00,34.7,18.9,29.00,NNW,338,2.5,4.0,52,0.00,,---,0.00,VWS V14.01,2013-05-12 07:16:00,
2013-05-12 02:20:00,34.9,19.1,29.00,NNW,338,3.4,4.3,52,0.00,,---,0.00,VWS V14.01,2013-05-12 07:20:00,
2013-05-12 02:21:00,34.5,18.7,29.00,North,0,2.5,3.1,52,0.00,,---,0.00,VWS V14.01,2013-05-12 07:21:00,
2013-05-12 02:25:00,34.7,18.9,29.00,NNW,338,3.1,4.0,52,0.00,,---,0.00,VWS V14.01,2013-05-12 07:25:00,
2013-05-12 02:26:00,34.3,18.5,29.00,NNW,338,2.7,2.9,52,0.00,,---,0.00,VWS V14.01,2013-05-12 07:26:00,
2013-05-12 02:30:00,34.5,18.7,29.00,North,0,2.7,3.1,52,0.00,,---,0.00,VWS V14.01,2013-05-12 07:30:00,
2013-05-12 02:31:00,34.2,18.4,29.00,WNW,292,2.7,2.9,52,0.00,,---,0.00,VWS V14.01,2013-05-12 07:31:00,
2013-05-12 02:35:00,34.3,18.6,29.00,NNW,338,2.9,3.1,52,0.00,,---,0.00,VWS V14.01,2013-05-12 07:35:00,
2013-05-12 02:36:00,33.8,18.0,29.00,NW,315,3.1,3.4,52,0.00,,---,0.00,VWS V14.01,2013-05-12 07:36:00,
2013-05-12 02:40:00,34.0,18.2,29.00,NW,315,2.5,3.1,52,0.00,,---,0.00,VWS V14.01,2013-05-12 07:40:00,
2013-05-12 02:41:00,33.8,18.0,29.00,NNW,338,2.9,3.1,52,0.00,,---,0.00,VWS V14.01,2013-05-12 07:41:00,
2013-05-12 02:45:00,33.8,18.0,29.00,NNW,338,2.0,3.4,52,0.00,,---,0.00,VWS V14.01,2013-05-12 07:45:00,
2013-05-12 02:46:00,33.6,18.3,29.00,North,0,1.6,2.7,53,0.00,,---,0.00,VWS V14.01,2013-05-12 07:46:00,
2013-05-12 02:50:00,33.8,18.0,29.00,NNW,338,2.5,3.1,52,0.00,,---,0.00,VWS V14.01,2013-05-12 07:50:00,
2013-05-12 02:51:00,33.4,18.2,29.00,NNW,338,2.2,2.7,53,0.00,,---,0.00,VWS V14.01,2013-05-12 07:51:00,
2013-05-12 02:55:00,33.6,18.3,29.00,NNW,338,1.6,2.7,53,0.00,,---,0.00,VWS V14.01,2013-05-12 07:55:00,
2013-05-12 02:56:00,33.1,17.8,29.00,WNW,292,2.9,3.1,53,0.00,,---,0.00,VWS V14.01,2013-05-12 07:56:00,
2013-05-12 03:00:00,33.3,18.0,29.00,NNW,338,2.5,2.7,53,0.00,,---,0.00,VWS V14.01,2013-05-12 08:00:00,
2013-05-12 03:01:00,33.1,17.8,29.00,WNW,292,4.0,4.0,53,0.00,,---,0.00,VWS V14.01,2013-05-12 08:01:00,
2013-05-12 03:05:00,33.1,17.8,29.00,WNW,292,2.5,3.1,53,0.00,,---,0.00,VWS V14.01,2013-05-12 08:05:00,
2013-05-12 03:06:00,32.9,17.7,29.00,NW,315,3.8,3.8,53,0.00,,---,0.00,VWS V14.01,2013-05-12 08:06:00,
2013-05-12 03:10:00,32.9,17.7,29.00,NW,315,3.1,4.0,53,0.00,,---,0.00,VWS V14.01,2013-05-12 08:10:00,
2013-05-12 03:11:00,32.9,18.1,29.00,NW,315,4.0,4.3,54,0.00,,---,0.00,VWS V14.01,2013-05-12 08:11:00,
2013-05-12 03:15:00,32.9,18.1,29.00,NNW,338,3.8,4.3,54,0.00,,---,0.00,VWS V14.01,2013-05-12 08:15:00,
2013-05-12 03:16:00,32.7,17.9,29.00,NW,315,3.6,4.3,54,0.00,,---,0.00,VWS V14.01,2013-05-12 08:16:00,
2013-05-12 03:20:00,32.9,18.1,29.00,NNW,338,3.8,4.3,54,0.00,,---,0.00,VWS V14.01,2013-05-12 08:20:00,
2013-05-12 03:21:00,32.7,17.9,29.00,NW,315,3.1,3.6,54,0.00,,---,0.00,VWS V14.01,2013-05-12 08:21:00,
2013-05-12 03:25:00,32.7,17.9,29.00,NW,315,2.9,4.3,54,0.00,,---,0.00,VWS V14.01,2013-05-12 08:25:00,
2013-05-12 03:26:00,32.7,17.9,29.00,NW,315,3.6,3.6,54,0.00,,---,0.00,VWS V14.01,2013-05-12 08:26:00,
2013-05-12 03:30:00,32.7,17.9,29.00,NNW,338,3.4,3.6,54,0.00,,---,0.00,VWS V14.01,2013-05-12 08:30:00,
2013-05-12 03:31:00,32.7,17.9,29.00,NW,315,4.3,4.3,54,0.00,,---,0.00,VWS V14.01,2013-05-12 08:31:00,
2013-05-12 03:35:00,32.7,17.9,29.00,NW,315,4.0,4.0,54,0.00,,---,0.00,VWS V14.01,2013-05-12 08:35:00,
2013-05-12 03:36:00,32.5,17.8,29.00,NW,315,4.0,4.5,54,0.00,,---,0.00,VWS V14.01,2013-05-12 08:36:00,
2013-05-12 03:40:00,32.5,17.8,29.00,NW,315,4.0,4.3,54,0.00,,---,0.00,VWS V14.01,2013-05-12 08:40:00,
2013-05-12 03:41:00,32.5,18.2,29.00,NW,315,4.9,4.9,55,0.00,,---,0.00,VWS V14.01,2013-05-12 08:41:00,
2013-05-12 03:45:00,32.5,17.8,29.00,NW,315,3.6,4.5,54,0.00,,---,0.00,VWS V14.01,2013-05-12 08:45:00,
2013-05-12 03:46:00,32.7,18.4,29.00,NNW,338,3.6,3.8,55,0.00,,---,0.00,VWS V14.01,2013-05-12 08:46:00,
2013-05-12 03:50:00,32.5,18.2,29.00,NNW,338,3.6,4.9,55,0.00,,---,0.00,VWS V14.01,2013-05-12 08:50:00,
2013-05-12 03:51:00,33.1,19.1,29.00,NNW,338,3.4,4.0,56,0.00,,---,0.00,VWS V14.01,2013-05-12 08:51:00,
2013-05-12 03:55:00,32.7,18.4,29.00,NNW,338,2.9,3.8,55,0.00,,---,0.00,VWS V14.01,2013-05-12 08:55:00,
2013-05-12 03:56:00,32.7,18.8,29.00,NNW,338,2.9,4.0,56,0.00,,---,0.00,VWS V14.01,2013-05-12 08:56:00,
2013-05-12 04:01:00,32.7,18.8,29.00,NW,315,3.8,3.8,56,0.00,,---,0.00,VWS V14.01,2013-05-12 09:01:00,
2013-05-12 04:05:00,32.7,18.8,29.00,NNW,338,2.9,4.0,56,0.00,,---,0.00,VWS V14.01,2013-05-12 09:05:00,
2013-05-12 04:06:00,32.2,17.8,29.00,NW,315,4.0,4.0,55,0.00,,---,0.00,VWS V14.01,2013-05-12 09:06:00,
2013-05-12 04:10:00,32.7,18.8,29.00,NW,315,3.4,3.8,56,0.00,,---,0.00,VWS V14.01,2013-05-12 09:10:00,
2013-05-12 04:11:00,31.8,17.5,29.00,WNW,292,3.1,4.0,55,0.00,,---,0.00,VWS V14.01,2013-05-12 09:11:00,
2013-05-12 04:15:00,32.2,17.8,29.00,NW,315,3.8,4.0,55,0.00,,---,0.00,VWS V14.01,2013-05-12 09:15:00,
2013-05-12 04:16:00,31.5,17.2,29.00,NNW,338,2.5,3.4,55,0.00,,---,0.00,VWS V14.01,2013-05-12 09:16:00,
2013-05-12 04:20:00,31.6,17.3,29.00,NW,315,3.1,4.0,55,0.00,,---,0.00,VWS V14.01,2013-05-12 09:20:00,
2013-05-12 04:21:00,31.5,17.2,29.00,NNW,338,2.7,3.6,55,0.00,,---,0.00,VWS V14.01,2013-05-12 09:21:00,
2013-05-12 04:25:00,31.5,17.2,29.00,NW,315,3.4,3.8,55,0.00,,---,0.00,VWS V14.01,2013-05-12 09:25:00,
2013-05-12 04:26:00,31.6,17.8,29.00,NW,315,2.9,2.9,56,0.00,,---,0.00,VWS V14.01,2013-05-12 09:26:00,
2013-05-12 04:30:00,31.5,17.6,29.00,NNW,338,2.2,3.6,56,0.00,,---,0.00,VWS V14.01,2013-05-12 09:30:00,
2013-05-12 04:31:00,31.5,17.6,29.00,NNW,338,1.6,2.7,56,0.00,,---,0.00,VWS V14.01,2013-05-12 09:31:00,
2013-05-12 04:35:00,31.5,17.6,29.00,WNW,292,2.7,4.0,56,0.00,,---,0.00,VWS V14.01,2013-05-12 09:35:00,
2013-05-12 04:36:00,31.1,17.2,29.00,NW,315,2.7,2.9,56,0.00,,---,0.00,VWS V14.01,2013-05-12 09:36:00,
2013-05-12 04:40:00,31.3,17.4,29.00,North,0,2.5,2.9,56,0.00,,---,0.00,VWS V14.01,2013-05-12 09:40:00,
2013-05-12 04:41:00,31.1,17.2,29.00,North,0,1.1,2.5,56,0.00,,---,0.00,VWS V14.01,2013-05-12 09:41:00,
2013-05-12 04:45:00,31.1,16.8,29.00,NNW,338,2.5,2.9,55,0.00,,---,0.00,VWS V14.01,2013-05-12 09:45:00,
2013-05-12 04:46:00,30.6,16.7,29.00,North,0,0.0,0.0,56,0.00,,---,0.00,VWS V14.01,2013-05-12 09:46:00,
2013-05-12 04:50:00,30.7,16.9,29.00,North,0,0.0,2.5,56,0.00,,---,0.00,VWS V14.01,2013-05-12 09:50:00,
2013-05-12 04:51:00,30.4,16.6,29.00,NW,315,2.5,2.5,56,0.00,,---,0.00,VWS V14.01,2013-05-12 09:51:00,
2013-05-12 04:55:00,30.4,16.6,29.00,NNW,338,2.2,2.2,56,0.00,,---,0.00,VWS V14.01,2013-05-12 09:55:00,
2013-05-12 04:56:00,30.4,16.6,29.00,NW,315,2.9,3.6,56,0.00,,---,0.00,VWS V14.01,2013-05-12 09:56:00,
2013-05-12 05:00:00,30.4,16.6,29.00,NW,315,2.7,2.7,56,0.00,,---,0.00,VWS V14.01,2013-05-12 10:00:00,
2013-05-12 05:01:00,30.9,17.1,29.00,NW,315,2.7,3.4,56,0.00,,---,0.00,VWS V14.01,2013-05-12 10:01:00,
2013-05-12 05:05:00,30.6,16.7,29.00,NW,315,2.7,4.3,56,0.00,,---,0.00,VWS V14.01,2013-05-12 10:05:00,
2013-05-12 05:06:00,31.1,17.7,29.00,NW,315,1.6,2.7,57,0.00,,---,0.00,VWS V14.01,2013-05-12 10:06:00,
2013-05-12 05:10:00,30.9,17.1,29.00,NNW,338,2.7,3.4,56,0.00,,---,0.00,VWS V14.01,2013-05-12 10:10:00,
2013-05-12 05:11:00,31.1,18.1,29.00,NNW,338,2.2,2.5,58,0.00,,---,0.00,VWS V14.01,2013-05-12 10:11:00,
2013-05-12 05:15:00,31.1,18.1,29.00,NNW,338,2.5,2.7,58,0.00,,---,0.00,VWS V14.01,2013-05-12 10:15:00,
2013-05-12 05:16:00,31.1,17.7,29.00,NW,315,2.7,2.7,57,0.00,,---,0.00,VWS V14.01,2013-05-12 10:16:00,
2013-05-12 05:20:00,31.1,18.1,29.00,NNW,338,2.0,2.5,58,0.00,,---,0.00,VWS V14.01,2013-05-12 10:20:00,
2013-05-12 05:21:00,30.9,17.5,29.00,WNW,292,2.5,2.9,57,0.00,,---,0.00,VWS V14.01,2013-05-12 10:21:00,
2013-05-12 05:25:00,31.1,17.7,29.00,WNW,292,2.7,3.1,57,0.00,,---,0.00,VWS V14.01,2013-05-12 10:25:00,
2013-05-12 05:26:00,30.7,17.3,29.00,WNW,292,2.7,3.6,57,0.00,,---,0.00,VWS V14.01,2013-05-12 10:26:00,
2013-05-12 05:30:00,30.7,17.3,29.00,WNW,292,2.7,2.9,57,0.00,,---,0.00,VWS V14.01,2013-05-12 10:30:00,
2013-05-12 05:31:00,30.6,17.6,29.00,WNW,292,2.5,3.6,58,0.00,,---,0.00,VWS V14.01,2013-05-12 10:31:00,
2013-05-12 05:35:00,30.7,17.7,29.00,WNW,292,3.4,3.8,58,0.00,,---,0.00,VWS V14.01,2013-05-12 10:35:00,
2013-05-12 05:36:00,30.4,17.4,29.00,WNW,292,2.2,3.1,58,0.00,,---,0.00,VWS V14.01,2013-05-12 10:36:00,
2013-05-12 05:40:00,30.6,17.6,29.00,WNW,292,3.1,3.6,58,0.00,,---,0.00,VWS V14.01,2013-05-12 10:40:00,
2013-05-12 05:41:00,30.2,17.2,29.00,NNW,338,2.0,2.5,58,0.00,,---,0.00,VWS V14.01,2013-05-12 10:41:00,
2013-05-12 05:45:00,30.4,17.4,29.00,WNW,292,2.2,3.1,58,0.00,,---,0.00,VWS V14.01,2013-05-12 10:45:00,
2013-05-12 05:46:00,30.2,17.6,29.00,NNW,338,1.6,2.2,59,0.00,,---,0.00,VWS V14.01,2013-05-12 10:46:00,
2013-05-12 05:50:00,30.2,17.6,29.00,NNW,338,2.0,2.5,59,0.00,,---,0.00,VWS V14.01,2013-05-12 10:50:00,
2013-05-12 05:51:00,30.4,17.4,29.00,NNW,338,2.7,2.7,58,0.00,,---,0.00,VWS V14.01,2013-05-12 10:51:00,
2013-05-12 05:55:00,30.2,17.6,29.00,NNW,338,1.6,2.5,59,0.00,,---,0.00,VWS V14.01,2013-05-12 10:55:00,
2013-05-12 05:56:00,30.6,18.0,29.00,NNW,338,2.2,2.5,59,0.00,,---,0.00,VWS V14.01,2013-05-12 10:56:00,
2013-05-12 06:00:00,30.4,17.8,29.00,NNW,338,2.5,2.9,59,0.00,,---,0.00,VWS V14.01,2013-05-12 11:00:00,
2013-05-12 06:01:00,30.9,18.3,29.00,NNW,338,2.7,2.7,59,0.00,,---,0.00,VWS V14.01,2013-05-12 11:01:00,
2013-05-12 06:05:00,30.7,18.1,29.00,NNW,338,2.2,2.5,59,0.00,,---,0.00,VWS V14.01,2013-05-12 11:05:00,
2013-05-12 06:06:00,31.1,18.9,29.00,NNW,338,2.5,2.9,60,0.00,,---,0.00,VWS V14.01,2013-05-12 11:06:00,
2013-05-12 06:10:00,30.9,18.7,29.00,NNW,338,2.5,2.7,60,0.00,,---,0.00,VWS V14.01,2013-05-12 11:10:00,
2013-05-12 06:11:00,31.1,18.9,29.00,NNW,338,3.1,3.1,60,0.00,,---,0.00,VWS V14.01,2013-05-12 11:11:00,
2013-05-12 06:15:00,31.1,18.9,29.00,NNW,338,2.7,3.1,60,0.00,,---,0.00,VWS V14.01,2013-05-12 11:15:00,
2013-05-12 06:16:00,30.9,18.7,29.00,NW,315,3.1,4.3,60,0.00,,---,0.00,VWS V14.01,2013-05-12 11:16:00,
2013-05-12 06:20:00,31.1,18.9,29.00,NW,315,4.0,4.0,60,0.00,,---,0.00,VWS V14.01,2013-05-12 11:20:00,
2013-05-12 06:21:00,30.9,18.3,29.00,NW,315,4.0,4.3,59,0.00,,---,0.00,VWS V14.01,2013-05-12 11:21:00,
2013-05-12 06:25:00,30.9,18.7,29.00,WNW,292,3.6,4.3,60,0.00,,---,0.00,VWS V14.01,2013-05-12 11:25:00,
2013-05-12 06:26:00,30.9,18.7,29.00,NW,315,3.1,3.8,60,0.00,,---,0.00,VWS V14.01,2013-05-12 11:26:00,
2013-05-12 06:30:00,30.9,18.7,29.00,NW,315,3.8,4.3,60,0.00,,---,0.00,VWS V14.01,2013-05-12 11:30:00,
2013-05-12 06:31:00,31.1,18.9,29.00,NW,315,3.4,4.0,60,0.00,,---,0.00,VWS V14.01,2013-05-12 11:31:00,
2013-05-12 06:35:00,31.1,18.9,29.00,NW,315,3.8,4.3,60,0.00,,---,0.00,VWS V14.01,2013-05-12 11:35:00,
2013-05-12 06:36:00,31.1,18.9,29.00,NW,315,3.1,3.8,60,0.00,,---,0.00,VWS V14.01,2013-05-12 11:36:00,
2013-05-12 06:40:00,31.1,18.9,29.00,NW,315,2.9,4.0,60,0.00,,---,0.00,VWS V14.01,2013-05-12 11:40:00,
2013-05-12 06:41:00,31.3,19.0,29.00,WNW,292,4.0,4.3,60,0.00,,---,0.00,VWS V14.01,2013-05-12 11:41:00,
2013-05-12 06:45:00,31.3,19.0,29.00,NW,315,4.0,4.0,60,0.00,,---,0.00,VWS V14.01,2013-05-12 11:45:00,
2013-05-12 06:46:00,31.6,19.4,29.00,NW,315,4.3,4.5,60,0.00,,---,0.00,VWS V14.01,2013-05-12 11:46:00,
2013-05-12 06:50:00,31.5,19.2,29.00,NW,315,4.5,4.5,60,0.00,,---,0.00,VWS V14.01,2013-05-12 11:50:00,
2013-05-12 06:51:00,31.8,19.5,29.00,NW,315,3.4,4.3,60,0.00,,---,0.00,VWS V14.01,2013-05-12 11:51:00,
2013-05-12 06:55:00,31.6,19.4,29.00,NW,315,3.1,4.5,60,0.00,,---,0.00,VWS V14.01,2013-05-12 11:55:00,
2013-05-12 06:56:00,32.0,20.1,29.00,NW,315,3.1,3.8,61,0.00,,---,0.00,VWS V14.01,2013-05-12 11:56:00,
2013-05-12 07:00:00,31.8,19.5,29.00,NNW,338,3.8,4.3,60,0.00,,---,0.00,VWS V14.01,2013-05-12 12:00:00,
2013-05-12 07:01:00,32.9,20.9,29.00,NW,315,3.1,4.3,61,0.00,,---,0.00,VWS V14.01,2013-05-12 12:01:00,
2013-05-12 07:05:00,32.5,20.6,29.00,NNW,338,4.3,4.3,61,0.00,,---,0.00,VWS V14.01,2013-05-12 12:05:00,
2013-05-12 07:06:00,32.9,21.3,29.00,NNW,338,4.9,4.9,62,0.00,,---,0.00,VWS V14.01,2013-05-12 12:06:00,
2013-05-12 07:10:00,32.9,20.9,29.00,NW,315,4.3,4.3,61,0.00,,---,0.00,VWS V14.01,2013-05-12 12:10:00,
2013-05-12 07:11:00,33.3,22.4,29.00,WNW,292,3.1,5.4,64,0.00,,---,0.00,VWS V14.01,2013-05-12 12:11:00,
2013-05-12 07:15:00,32.9,21.3,29.00,NNW,338,5.4,5.4,62,0.00,,---,0.00,VWS V14.01,2013-05-12 12:15:00,
2013-05-12 07:16:00,34.0,22.7,29.00,NNW,338,3.4,4.3,63,0.00,,---,0.00,VWS V14.01,2013-05-12 12:16:00,
2013-05-12 07:20:00,33.6,22.8,29.00,WNW,292,2.9,5.4,64,0.00,,---,0.00,VWS V14.01,2013-05-12 12:20:00,
2013-05-12 07:21:00,34.5,23.6,29.00,NW,315,3.1,4.0,64,0.00,,---,0.00,VWS V14.01,2013-05-12 12:21:00,
2013-05-12 07:25:00,34.0,22.7,29.00,NW,315,2.7,4.3,63,0.00,,---,0.00,VWS V14.01,2013-05-12 12:25:00,
2013-05-12 07:26:00,34.9,24.0,29.00,WNW,292,2.9,3.4,64,0.00,,---,0.00,VWS V14.01,2013-05-12 12:26:00,
2013-05-12 07:30:00,34.5,23.2,29.00,NW,315,2.9,4.0,63,0.00,,---,0.00,VWS V14.01,2013-05-12 12:30:00,
2013-05-12 07:31:00,35.4,24.5,29.00,NNW,338,1.6,3.4,64,0.00,,---,0.00,VWS V14.01,2013-05-12 12:31:00,
2013-05-12 07:35:00,35.1,24.1,29.00,WNW,292,2.5,3.4,64,0.00,,---,0.00,VWS V14.01,2013-05-12 12:35:00,
2013-05-12 07:36:00,35.8,24.8,29.03,NNE,22,2.0,4.7,64,0.00,,---,0.00,VWS V14.01,2013-05-12 12:36:00,
2013-05-12 07:40:00,35.4,24.5,29.03,NNW,338,3.4,4.0,64,0.00,,---,0.00,VWS V14.01,2013-05-12 12:40:00,
2013-05-12 07:41:00,36.7,26.4,29.03,NW,315,2.5,4.7,66,0.00,,---,0.00,VWS V14.01,2013-05-12 12:41:00,
2013-05-12 07:45:00,36.3,26.1,29.03,NNW,338,2.5,4.7,66,0.00,,---,0.00,VWS V14.01,2013-05-12 12:45:00,
2013-05-12 07:46:00,37.4,26.0,29.03,NW,315,3.6,5.4,63,0.00,,---,0.00,VWS V14.01,2013-05-12 12:46:00,
2013-05-12 07:50:00,36.9,26.2,29.03,WNW,292,4.0,5.4,65,0.00,,---,0.00,VWS V14.01,2013-05-12 12:50:00,
2013-05-12 07:51:00,38.1,25.9,29.03,NNW,338,4.9,7.4,61,0.00,,---,0.00,VWS V14.01,2013-05-12 12:51:00,
2013-05-12 07:55:00,37.8,25.9,29.03,North,0,6.3,7.4,62,0.00,,---,0.00,VWS V14.01,2013-05-12 12:55:00,
2013-05-12 07:56:00,38.8,25.3,29.03,NNW,338,6.0,6.0,58,0.00,,---,0.00,VWS V14.01,2013-05-12 12:56:00,
2013-05-12 08:00:00,38.5,25.8,29.03,NNW,338,4.3,7.4,60,0.00,,---,0.00,VWS V14.01,2013-05-12 13:00:00,
2013-05-12 08:01:00,39.6,25.2,29.03,NNW,338,3.4,6.3,56,0.00,,---,0.00,VWS V14.01,2013-05-12 13:01:00,
2013-05-12 08:05:00,39.0,25.5,29.03,NNW,338,6.3,7.2,58,0.00,,---,0.00,VWS V14.01,2013-05-12 13:05:00,
2013-05-12 08:06:00,40.1,25.2,29.03,NNW,338,3.8,7.2,55,0.00,,---,0.00,VWS V14.01,2013-05-12 13:06:00,
2013-05-12 08:10:00,39.7,25.3,29.03,NNW,338,5.6,7.6,56,0.00,,---,0.00,VWS V14.01,2013-05-12 13:10:00,
2013-05-12 08:11:00,40.6,25.3,29.03,NNW,338,6.0,6.0,54,0.00,,---,0.00,VWS V14.01,2013-05-12 13:11:00,
2013-05-12 08:15:00,40.1,25.2,29.03,NW,315,3.8,7.2,55,0.00,,---,0.00,VWS V14.01,2013-05-12 13:15:00,
2013-05-12 08:16:00,41.0,25.2,29.03,NNW,338,3.1,6.3,53,0.00,,---,0.00,VWS V14.01,2013-05-12 13:16:00,
2013-05-12 08:20:00,41.0,25.2,29.03,NNW,338,6.3,6.5,53,0.00,,---,0.00,VWS V14.01,2013-05-12 13:20:00,
2013-05-12 08:21:00,41.5,25.2,29.03,North,0,6.3,6.3,52,0.00,,---,0.00,VWS V14.01,2013-05-12 13:21:00,
2013-05-12 08:25:00,41.4,25.5,29.03,NW,315,4.3,6.3,53,0.00,,---,0.00,VWS V14.01,2013-05-12 13:25:00,
2013-05-12 08:26:00,42.1,25.3,29.03,NNW,338,5.8,7.8,51,0.00,,---,0.00,VWS V14.01,2013-05-12 13:26:00,
2013-05-12 08:30:00,41.7,25.4,29.03,NNW,338,6.3,6.3,52,0.00,,---,0.00,VWS V14.01,2013-05-12 13:30:00,
2013-05-12 08:31:00,42.3,24.5,29.03,NW,315,4.0,7.6,49,0.00,,---,0.00,VWS V14.01,2013-05-12 13:31:00,
2013-05-12 08:35:00,42.1,24.3,29.03,NNW,338,7.4,7.8,49,0.00,,---,0.00,VWS V14.01,2013-05-12 13:35:00,
2013-05-12 08:36:00,42.4,24.1,29.00,NW,315,3.8,7.8,48,0.00,,---,0.00,VWS V14.01,2013-05-12 13:36:00,
2013-05-12 08:40:00,42.4,24.1,29.00,NNW,338,4.3,7.6,48,0.00,,---,0.00,VWS V14.01,2013-05-12 13:40:00,
2013-05-12 08:41:00,43.0,24.6,29.00,NW,315,3.4,7.8,48,0.00,,---,0.00,VWS V14.01,2013-05-12 13:41:00,
2013-05-12 08:45:00,42.6,23.8,29.00,WNW,292,6.9,10.1,47,0.00,,---,0.00,VWS V14.01,2013-05-12 13:45:00,
2013-05-12 08:46:00,43.7,24.3,29.00,WNW,292,5.4,6.0,46,0.00,,---,0.00,VWS V14.01,2013-05-12 13:46:00,
2013-05-12 08:50:00,43.2,24.8,29.00,North,0,3.4,7.8,48,0.00,,---,0.00,VWS V14.01,2013-05-12 13:50:00,
2013-05-12 08:51:00,44.1,23.6,29.03,NNW,338,7.4,7.8,44,0.00,,---,0.00,VWS V14.01,2013-05-12 13:51:00,
2013-05-12 08:55:00,43.7,24.3,29.03,North,0,4.0,6.5,46,0.00,,---,0.00,VWS V14.01,2013-05-12 13:55:00,
2013-05-12 08:56:00,44.4,23.3,29.03,WNW,292,4.0,10.1,43,0.00,,---,0.00,VWS V14.01,2013-05-12 13:56:00,
2013-05-12 09:00:00,44.2,23.7,29.03,NNW,338,5.4,8.5,44,0.00,,---,0.00,VWS V14.01,2013-05-12 14:00:00,
2013-05-12 09:01:00,44.8,23.1,29.03,NNW,338,7.2,7.8,42,0.00,,---,0.00,VWS V14.01,2013-05-12 14:01:00,
2013-05-12 09:05:00,44.6,22.9,29.03,NW,315,6.0,10.1,42,0.00,,---,0.00,VWS V14.01,2013-05-12 14:05:00,
2013-05-12 09:06:00,45.0,22.7,29.03,NW,315,5.6,10.7,41,0.00,,---,0.00,VWS V14.01,2013-05-12 14:06:00,
2013-05-12 09:10:00,44.8,22.5,29.03,WNW,292,10.7,13.0,41,0.00,,---,0.00,VWS V14.01,2013-05-12 14:10:00,
2013-05-12 09:11:00,45.1,22.3,29.03,NNW,338,8.1,12.1,40,0.00,,---,0.00,VWS V14.01,2013-05-12 14:11:00,
2013-05-12 09:15:00,45.1,22.9,29.03,NNW,338,6.0,10.7,41,0.00,,---,0.00,VWS V14.01,2013-05-12 14:15:00,
2013-05-12 09:16:00,45.7,22.8,29.03,NW,315,8.7,12.8,40,0.00,,---,0.00,VWS V14.01,2013-05-12 14:16:00,
2013-05-12 09:20:00,45.5,22.6,29.03,NNW,338,12.8,12.8,40,0.00,,---,0.00,VWS V14.01,2013-05-12 14:20:00,
2013-05-12 09:21:00,46.2,23.2,29.03,NNW,338,5.6,9.6,40,0.00,,---,0.00,VWS V14.01,2013-05-12 14:21:00,
2013-05-12 09:25:00,46.0,23.7,29.03,NW,315,6.0,12.8,41,0.00,,---,0.00,VWS V14.01,2013-05-12 14:25:00,
2013-05-12 09:26:00,46.4,22.8,29.03,NNW,338,7.6,12.8,39,0.00,,---,0.00,VWS V14.01,2013-05-12 14:26:00,
2013-05-12 09:30:00,46.4,22.8,29.03,WNW,292,6.5,9.6,39,0.00,,---,0.00,VWS V14.01,2013-05-12 14:30:00,
2013-05-12 09:31:00,46.2,22.6,29.03,North,0,3.8,8.1,39,0.00,,---,0.00,VWS V14.01,2013-05-12 14:31:00,
2013-05-12 09:35:00,46.4,22.8,29.03,NNW,338,6.3,12.8,39,0.00,,---,0.00,VWS V14.01,2013-05-12 14:35:00,
2013-05-12 09:36:00,46.0,22.5,29.00,WNW,292,3.6,7.2,39,0.00,,---,0.00,VWS V14.01,2013-05-12 14:36:00,
2013-05-12 09:40:00,46.0,22.5,29.00,NW,315,7.2,9.8,39,0.00,,---,0.00,VWS V14.01,2013-05-12 14:40:00,
2013-05-12 09:41:00,46.2,22.6,29.00,North,0,4.9,7.6,39,0.00,,---,0.00,VWS V14.01,2013-05-12 14:41:00,
2013-05-12 09:45:00,46.0,22.5,29.00,North,0,5.6,10.3,39,0.00,,---,0.00,VWS V14.01,2013-05-12 14:45:00,
2013-05-12 09:46:00,46.2,22.6,29.00,NNW,338,5.6,12.8,39,0.00,,---,0.00,VWS V14.01,2013-05-12 14:46:00,
2013-05-12 09:50:00,46.2,22.6,29.00,NNW,338,6.5,8.5,39,0.00,,---,0.00,VWS V14.01,2013-05-12 14:50:00,
2013-05-12 09:51:00,46.2,22.6,29.00,NW,315,13.2,17.5,39,0.00,,---,0.00,VWS V14.01,2013-05-12 14:51:00,
2013-05-12 09:55:00,46.0,22.5,29.00,NNW,338,2.5,12.8,39,0.00,,---,0.00,VWS V14.01,2013-05-12 14:55:00,
2013-05-12 09:56:00,46.6,22.4,29.00,NW,315,5.6,8.5,38,0.00,,---,0.00,VWS V14.01,2013-05-12 14:56:00,
2013-05-12 10:00:00,46.4,22.2,29.00,North,0,8.5,17.5,38,0.00,,---,0.00,VWS V14.01,2013-05-12 15:00:00,
2013-05-12 10:01:00,46.6,22.4,29.00,WNW,292,8.7,12.1,38,0.00,,---,0.00,VWS V14.01,2013-05-12 15:01:00,
2013-05-12 10:05:00,46.6,22.4,29.00,NW,315,6.5,8.5,38,0.00,,---,0.00,VWS V14.01,2013-05-12 15:05:00,
2013-05-12 10:06:00,46.8,22.5,29.00,NNW,338,9.8,9.8,38,0.00,,---,0.00,VWS V14.01,2013-05-12 15:06:00,
2013-05-12 10:10:00,46.8,22.5,29.00,NNW,338,5.4,12.1,38,0.00,,---,0.00,VWS V14.01,2013-05-12 15:10:00,
2013-05-12 10:11:00,47.7,23.3,29.00,NNE,22,5.6,7.4,38,0.00,,---,0.00,VWS V14.01,2013-05-12 15:11:00,
2013-05-12 10:15:00,47.1,22.8,29.00,NNW,338,6.5,9.8,38,0.00,,---,0.00,VWS V14.01,2013-05-12 15:15:00,
2013-05-12 10:16:00,48.2,23.8,29.00,NW,315,7.6,7.6,38,0.00,,---,0.00,VWS V14.01,2013-05-12 15:16:00,
2013-05-12 10:20:00,48.0,23.6,29.00,NW,315,5.8,7.4,38,0.00,,---,0.00,VWS V14.01,2013-05-12 15:20:00,
2013-05-12 10:21:00,49.5,24.3,29.00,NNW,338,4.3,7.4,37,0.00,,---,0.00,VWS V14.01,2013-05-12 15:21:00,
2013-05-12 10:25:00,48.7,23.6,29.00,NW,315,5.4,9.0,37,0.00,,---,0.00,VWS V14.01,2013-05-12 15:25:00,
2013-05-12 10:26:00,49.6,24.5,29.00,NNW,338,6.5,10.3,37,0.00,,---,0.00,VWS V14.01,2013-05-12 15:26:00,
2013-05-12 10:30:00,49.6,24.5,29.00,NNW,338,10.3,12.3,37,0.00,,---,0.00,VWS V14.01,2013-05-12 15:30:00,
2013-05-12 10:31:00,50.2,24.3,29.00,WNW,292,3.4,8.5,36,0.00,,---,0.00,VWS V14.01,2013-05-12 15:31:00,
2013-05-12 10:35:00,50.0,24.1,29.00,NW,315,3.6,10.3,36,0.00,,---,0.00,VWS V14.01,2013-05-12 15:35:00,
2013-05-12 10:36:00,51.4,25.4,29.00,NE,45,6.0,10.1,36,0.00,,---,0.00,VWS V14.01,2013-05-12 15:36:00,
2013-05-12 10:40:00,50.7,24.8,29.00,North,0,5.8,8.5,36,0.00,,---,0.00,VWS V14.01,2013-05-12 15:40:00,
2013-05-12 10:41:00,51.3,23.2,29.00,NW,315,9.8,11.2,33,0.00,,---,0.00,VWS V14.01,2013-05-12 15:41:00,
2013-05-12 10:45:00,51.4,25.4,29.00,NNW,338,4.3,10.1,36,0.00,,---,0.00,VWS V14.01,2013-05-12 15:45:00,
2013-05-12 10:46:00,51.3,23.2,29.00,NW,315,5.4,8.7,33,0.00,,---,0.00,VWS V14.01,2013-05-12 15:46:00,
2013-05-12 10:50:00,51.3,23.2,29.00,NNW,338,8.7,13.0,33,0.00,,---,0.00,VWS V14.01,2013-05-12 15:50:00,
2013-05-12 10:51:00,51.8,22.1,29.00,NNW,338,11.0,11.0,31,0.00,,---,0.00,VWS V14.01,2013-05-12 15:51:00,
2013-05-12 10:56:00,51.8,21.4,29.00,NNW,338,8.7,13.2,30,0.00,,---,0.00,VWS V14.01,2013-05-12 15:56:00,
2013-05-12 11:00:00,52.2,22.5,29.00,NW,315,12.1,12.8,31,0.00,,---,0.00,VWS V14.01,2013-05-12 16:00:00,
2013-05-12 11:01:00,52.2,21.7,29.00,NNW,338,4.9,11.0,30,0.00,,---,0.00,VWS V14.01,2013-05-12 16:01:00,
2013-05-12 11:05:00,52.2,22.5,29.00,NNW,338,11.0,13.2,31,0.00,,---,0.00,VWS V14.01,2013-05-12 16:05:00,
2013-05-12 11:06:00,53.2,22.6,29.00,NNW,338,8.5,11.0,30,0.00,,---,0.00,VWS V14.01,2013-05-12 16:06:00,
2013-05-12 11:11:00,53.6,22.1,29.00,North,0,6.3,8.7,29,0.00,,---,0.00,VWS V14.01,2013-05-12 16:11:00,
2013-05-12 11:15:00,53.2,21.8,29.00,NNW,338,4.9,11.0,29,0.00,,---,0.00,VWS V14.01,2013-05-12 16:15:00,
2013-05-12 11:16:00,53.6,21.3,29.00,NNW,338,9.8,17.2,28,0.00,,---,0.00,VWS V14.01,2013-05-12 16:16:00,
2013-05-12 11:20:00,53.6,21.3,29.00,NNW,338,6.0,8.7,28,0.00,,---,0.00,VWS V14.01,2013-05-12 16:20:00,
2013-05-12 11:21:00,53.8,21.5,29.00,NNW,338,6.0,7.6,28,0.00,,---,0.00,VWS V14.01,2013-05-12 16:21:00,
2013-05-12 11:25:00,53.8,21.5,29.00,NW,315,7.4,17.2,28,0.00,,---,0.00,VWS V14.01,2013-05-12 16:25:00,
2013-05-12 11:26:00,54.7,21.4,29.00,NW,315,14.8,14.8,27,0.00,,---,0.00,VWS V14.01,2013-05-12 16:26:00,
2013-05-12 11:30:00,53.8,21.5,29.00,NW,315,3.4,9.8,28,0.00,,---,0.00,VWS V14.01,2013-05-12 16:30:00,
2013-05-12 11:31:00,54.5,20.3,29.00,NNW,338,7.2,7.2,26,0.00,,---,0.00,VWS V14.01,2013-05-12 16:31:00,
2013-05-12 11:35:00,54.5,20.3,29.00,NNE,22,2.5,14.8,26,0.00,,---,0.00,VWS V14.01,2013-05-12 16:35:00,
2013-05-12 11:36:00,55.0,20.8,29.00,NNW,338,10.3,15.4,26,0.00,,---,0.00,VWS V14.01,2013-05-12 16:36:00,
2013-05-12 11:40:00,55.2,21.0,29.00,NNW,338,15.4,15.4,26,0.00,,---,0.00,VWS V14.01,2013-05-12 16:40:00,
2013-05-12 11:41:00,55.2,20.0,29.00,NW,315,9.8,13.9,25,0.00,,---,0.00,VWS V14.01,2013-05-12 16:41:00,
2013-05-12 11:45:00,55.0,20.8,29.00,NNW,338,9.2,15.4,26,0.00,,---,0.00,VWS V14.01,2013-05-12 16:45:00,
2013-05-12 11:46:00,55.9,17.7,29.00,NNW,338,6.5,10.5,22,0.00,,---,0.00,VWS V14.01,2013-05-12 16:46:00,
2013-05-12 11:50:00,55.4,20.2,29.00,North,0,10.1,13.9,25,0.00,,---,0.00,VWS V14.01,2013-05-12 16:50:00,
2013-05-12 11:51:00,56.5,18.1,28.97,NW,315,12.1,12.3,22,0.00,,---,0.00,VWS V14.01,2013-05-12 16:51:00,
2013-05-12 11:55:00,57.0,21.6,28.97,NNW,338,2.9,10.5,25,0.00,,---,0.00,VWS V14.01,2013-05-12 16:55:00,
2013-05-12 11:56:00,56.3,15.8,28.97,NNW,338,15.9,16.6,20,0.00,,---,0.00,VWS V14.01,2013-05-12 16:56:00,
2013-05-12 12:00:00,56.3,12.1,28.97,NW,315,13.2,13.2,17,0.00,,---,0.00,VWS V14.01,2013-05-12 17:00:00,
2013-05-12 12:01:00,56.7,21.3,28.97,North,0,5.6,7.4,25,0.00,,---,0.00,VWS V14.01,2013-05-12 17:01:00,
2013-05-12 12:05:00,56.5,18.1,28.97,NNE,22,4.9,16.6,22,0.00,,---,0.00,VWS V14.01,2013-05-12 17:05:00,
2013-05-12 12:06:00,56.5,18.1,28.97,NNW,338,10.7,15.2,22,0.00,,---,0.00,VWS V14.01,2013-05-12 17:06:00,
2013-05-12 12:07:00,56.5,18.1,28.97,NNW,338,6.5,6.5,22,0.00,,---,0.00,VWS V14.01,2013-05-12 17:07:00,
2013-05-12 12:10:00,56.7,18.3,28.97,NNW,338,13.0,18.8,22,0.00,,---,0.00,VWS V14.01,2013-05-12 17:10:00,
2013-05-12 12:11:00,56.8,21.4,28.97,NNW,338,11.0,12.3,25,0.00,,---,0.00,VWS V14.01,2013-05-12 17:11:00,
2013-05-12 12:15:00,56.7,18.3,28.97,NNW,338,10.3,15.2,22,0.00,,---,0.00,VWS V14.01,2013-05-12 17:15:00,
2013-05-12 12:16:00,58.1,22.5,28.97,NNW,338,5.8,8.1,25,0.00,,---,0.00,VWS V14.01,2013-05-12 17:16:00,
2013-05-12 12:20:00,57.2,18.7,28.97,NNE,22,5.4,12.3,22,0.00,,---,0.00,VWS V14.01,2013-05-12 17:20:00,
2013-05-12 12:21:00,58.1,16.1,28.97,North,0,10.1,13.4,19,0.00,,---,0.00,VWS V14.01,2013-05-12 17:21:00,
2013-05-12 12:25:00,58.1,22.5,28.97,NNW,338,8.1,8.1,25,0.00,,---,0.00,VWS V14.01,2013-05-12 17:25:00,
2013-05-12 12:26:00,58.1,13.5,28.97,NW,315,5.8,15.4,17,0.00,,---,0.00,VWS V14.01,2013-05-12 17:26:00,
2013-05-12 12:30:00,57.9,13.4,28.97,NNW,338,15.4,15.4,17,0.00,,---,0.00,VWS V14.01,2013-05-12 17:30:00,
2013-05-12 12:31:00,58.1,16.1,28.97,NNW,338,6.0,12.5,19,0.00,,---,0.00,VWS V14.01,2013-05-12 17:31:00,
2013-05-12 12:35:00,58.1,19.5,28.97,NNW,338,10.3,15.4,22,0.00,,---,0.00,VWS V14.01,2013-05-12 17:35:00,
2013-05-12 12:36:00,58.1,16.1,28.97,NNE,22,13.2,13.2,19,0.00,,---,0.00,VWS V14.01,2013-05-12 17:36:00,
2013-05-12 12:40:00,58.1,19.5,28.97,NW,315,6.5,12.5,22,0.00,,---,0.00,VWS V14.01,2013-05-12 17:40:00,
2013-05-12 12:41:00,59.0,16.8,28.97,North,0,6.3,10.5,19,0.00,,---,0.00,VWS V14.01,2013-05-12 17:41:00,
2013-05-12 12:45:00,58.5,16.4,28.97,NNW,338,10.5,13.2,19,0.00,,---,0.00,VWS V14.01,2013-05-12 17:45:00,
2013-05-12 12:46:00,59.7,17.4,28.97,NW,315,10.7,12.5,19,0.00,,---,0.00,VWS V14.01,2013-05-12 17:46:00,
2013-05-12 12:50:00,59.7,23.9,28.97,NNW,338,6.0,10.5,25,0.00,,---,0.00,VWS V14.01,2013-05-12 17:50:00,
2013-05-12 12:51:00,59.5,14.7,28.94,NNE,22,5.6,13.2,17,0.00,,---,0.00,VWS V14.01,2013-05-12 17:51:00,
2013-05-12 12:55:00,59.9,21.0,28.94,North,0,5.4,13.2,22,0.00,,---,0.00,VWS V14.01,2013-05-12 17:55:00,
2013-05-12 12:56:00,60.4,23.5,28.94,NNE,22,6.0,13.0,24,0.00,,---,0.00,VWS V14.01,2013-05-12 17:56:00,
2013-05-12 13:00:00,59.9,21.0,28.94,NNW,338,6.0,13.2,22,0.00,,---,0.00,VWS V14.01,2013-05-12 18:00:00,
2013-05-12 13:01:00,60.6,1.5,28.94,North,0,7.8,12.8,9,0.00,,---,0.00,VWS V14.01,2013-05-12 18:01:00,
2013-05-12 13:05:00,60.4,21.4,28.94,NNE,22,10.5,13.0,22,0.00,,---,0.00,VWS V14.01,2013-05-12 18:05:00,
2013-05-12 13:06:00,60.4,7.6,29.00,North,0,12.1,13.0,12,0.00,,---,0.00,VWS V14.01,2013-05-12 18:06:00,
2013-05-12 13:10:00,60.4,7.6,29.00,NW,315,11.0,12.8,12,0.00,,---,0.00,VWS V14.01,2013-05-12 18:10:00,
2013-05-12 13:11:00,60.1,15.1,29.00,NNW,338,13.2,13.2,17,0.00,,---,0.00,VWS V14.01,2013-05-12 18:11:00,
2013-05-12 13:15:00,60.6,15.6,29.00,NNW,338,4.3,13.0,17,0.00,,---,0.00,VWS V14.01,2013-05-12 18:15:00,
2013-05-12 13:16:00,60.3,1.2,29.00,North,0,5.4,13.0,9,0.00,,---,0.00,VWS V14.01,2013-05-12 18:16:00,
2013-05-12 13:20:00,60.3,7.5,29.00,WNW,292,7.8,13.2,12,0.00,,---,0.00,VWS V14.01,2013-05-12 18:20:00,
2013-05-12 13:21:00,61.7,21.4,28.97,NW,315,3.1,10.1,21,0.00,,---,0.00,VWS V14.01,2013-05-12 18:21:00,
2013-05-12 13:25:00,61.2,24.1,28.97,North,0,5.4,13.0,24,0.00,,---,0.00,VWS V14.01,2013-05-12 18:25:00,
2013-05-12 13:26:00,61.2,6.3,28.97,NNW,338,3.8,10.3,11,0.00,,---,0.00,VWS V14.01,2013-05-12 18:26:00,
2013-05-12 13:30:00,61.9,15.2,28.97,NNW,338,5.8,10.1,16,0.00,,---,0.00,VWS V14.01,2013-05-12 18:30:00,
2013-05-12 13:31:00,61.2,1.9,28.97,NNW,338,8.1,11.0,9,0.00,,---,0.00,VWS V14.01,2013-05-12 18:31:00,
2013-05-12 13:35:00,62.1,15.4,28.97,NE,45,7.6,10.3,16,0.00,,---,0.00,VWS V14.01,2013-05-12 18:35:00,
2013-05-12 13:36:00,61.5,6.5,28.97,NNE,22,8.1,9.8,11,0.00,,---,0.00,VWS V14.01,2013-05-12 18:36:00,
2013-05-12 13:40:00,61.2,11.6,28.97,North,0,3.6,11.0,14,0.00,,---,0.00,VWS V14.01,2013-05-12 18:40:00,
2013-05-12 13:41:00,61.7,12.1,28.97,North,0,5.8,8.7,14,0.00,,---,0.00,VWS V14.01,2013-05-12 18:41:00,
2013-05-12 13:45:00,61.5,6.5,28.97,WNW,292,4.9,9.8,11,0.00,,---,0.00,VWS V14.01,2013-05-12 18:45:00,
2013-05-12 13:46:00,61.7,6.7,28.97,North,0,10.3,11.4,11,0.00,,---,0.00,VWS V14.01,2013-05-12 18:46:00,
2013-05-12 13:50:00,61.7,6.7,28.97,North,0,6.0,8.7,11,0.00,,---,0.00,VWS V14.01,2013-05-12 18:50:00,
2013-05-12 13:51:00,62.6,11.1,28.97,NW,315,5.8,6.0,13,0.00,,---,0.00,VWS V14.01,2013-05-12 18:51:00,
2013-05-12 13:55:00,61.7,6.7,28.97,NNW,338,6.0,12.1,11,0.00,,---,0.00,VWS V14.01,2013-05-12 18:55:00,
2013-05-12 13:56:00,62.2,7.1,28.97,NNW,338,13.2,13.2,11,0.00,,---,0.00,VWS V14.01,2013-05-12 18:56:00,
2013-05-12 14:00:00,62.8,7.5,28.97,NW,315,9.4,9.4,11,0.00,,---,0.00,VWS V14.01,2013-05-12 19:00:00,
2013-05-12 14:01:00,62.1,2.6,28.97,NNE,22,5.8,12.5,9,0.00,,---,0.00,VWS V14.01,2013-05-12 19:01:00,
2013-05-12 14:05:00,62.1,2.6,28.97,NNE,22,8.5,13.2,9,0.00,,---,0.00,VWS V14.01,2013-05-12 19:05:00,
2013-05-12 14:06:00,62.2,2.7,28.94,NNW,338,6.7,11.0,9,0.00,,---,0.00,VWS V14.01,2013-05-12 19:06:00,
2013-05-12 14:10:00,62.1,2.6,28.94,NNW,338,4.3,12.5,9,0.00,,---,0.00,VWS V14.01,2013-05-12 19:10:00,
2013-05-12 14:11:00,61.7,-6.2,28.94,NNW,338,8.5,17.0,6,0.00,,---,0.00,VWS V14.01,2013-05-12 19:11:00,
2013-05-12 14:15:00,62.2,2.7,28.94,NW,315,12.8,12.8,9,0.00,,---,0.00,VWS V14.01,2013-05-12 19:15:00,
2013-05-12 14:16:00,62.6,-5.6,28.94,North,0,3.1,11.0,6,0.00,,---,0.00,VWS V14.01,2013-05-12 19:16:00,
2013-05-12 14:20:00,61.7,-6.2,28.94,NNW,338,4.7,17.0,6,0.00,,---,0.00,VWS V14.01,2013-05-12 19:20:00,
2013-05-12 14:21:00,61.3,-10.2,28.94,NW,315,8.1,19.9,5,0.00,,---,0.00,VWS V14.01,2013-05-12 19:21:00,
2013-05-12 14:25:00,62.2,-9.6,28.94,NW,315,19.9,19.9,5,0.00,,---,0.00,VWS V14.01,2013-05-12 19:25:00,
2013-05-12 14:26:00,62.1,2.6,28.94,NNW,338,5.4,8.5,9,0.00,,---,0.00,VWS V14.01,2013-05-12 19:26:00,
2013-05-12 14:30:00,61.2,1.9,28.94,North,0,6.3,19.9,9,0.00,,---,0.00,VWS V14.01,2013-05-12 19:30:00,
2013-05-12 14:31:00,62.6,-9.3,28.94,NNW,338,10.1,10.3,5,0.00,,---,0.00,VWS V14.01,2013-05-12 19:31:00,
2013-05-12 14:35:00,62.1,-9.7,28.94,NNE,22,7.6,8.7,5,0.00,,---,0.00,VWS V14.01,2013-05-12 19:35:00,
2013-05-12 14:36:00,62.1,-6.0,28.91,NNW,338,5.6,14.5,6,0.00,,---,0.00,VWS V14.01,2013-05-12 19:36:00,
2013-05-12 14:40:00,62.4,-5.7,28.91,NNW,338,14.5,15.7,6,0.00,,---,0.00,VWS V14.01,2013-05-12 19:40:00,
2013-05-12 14:41:00,61.7,-9.9,28.91,NNW,338,12.8,14.3,5,0.00,,---,0.00,VWS V14.01,2013-05-12 19:41:00,
2013-05-12 14:45:00,62.4,-9.4,28.91,NNW,338,6.0,14.5,5,0.00,,---,0.00,VWS V14.01,2013-05-12 19:45:00,
2013-05-12 14:46:00,61.7,-6.2,28.91,NNW,338,5.6,11.0,6,0.00,,---,0.00,VWS V14.01,2013-05-12 19:46:00,
2013-05-12 14:50:00,61.7,-9.9,28.91,NNW,338,6.5,14.3,5,0.00,,---,0.00,VWS V14.01,2013-05-12 19:50:00,
2013-05-12 14:51:00,61.9,-9.8,28.91,NNW,338,6.3,10.5,5,0.00,,---,0.00,VWS V14.01,2013-05-12 19:51:00,
2013-05-12 14:55:00,61.7,-6.2,28.91,NNW,338,8.5,11.0,6,0.00,,---,0.00,VWS V14.01,2013-05-12 19:55:00,
2013-05-12 14:56:00,61.5,-10.1,28.91,NNW,338,10.1,11.0,5,0.00,,---,0.00,VWS V14.01,2013-05-12 19:56:00,
2013-05-12 15:00:00,61.9,-9.8,28.91,NNW,338,9.4,13.4,5,0.00,,---,0.00,VWS V14.01,2013-05-12 20:00:00,
2013-05-12 15:01:00,61.7,-9.9,28.91,NNW,338,11.0,12.1,5,0.00,,---,0.00,VWS V14.01,2013-05-12 20:01:00,
2013-05-12 15:05:00,61.7,-9.9,28.91,NNE,22,8.7,11.0,5,0.00,,---,0.00,VWS V14.01,2013-05-12 20:05:00,
2013-05-12 15:06:00,61.7,-9.9,28.91,NNW,338,9.4,13.6,5,0.00,,---,0.00,VWS V14.01,2013-05-12 20:06:00,
2013-05-12 15:10:00,61.7,-9.9,28.91,NNW,338,8.7,12.3,5,0.00,,---,0.00,VWS V14.01,2013-05-12 20:10:00,
2013-05-12 15:11:00,61.7,-9.9,28.91,NNW,338,7.6,7.8,5,0.00,,---,0.00,VWS V14.01,2013-05-12 20:11:00,
2013-05-12 15:15:00,61.7,-9.9,28.91,NNW,338,6.3,13.6,5,0.00,,---,0.00,VWS V14.01,2013-05-12 20:15:00,
2013-05-12 15:16:00,62.1,-9.7,28.91,NNW,338,8.5,14.8,5,0.00,,---,0.00,VWS V14.01,2013-05-12 20:16:00,
2013-05-12 15:20:00,61.9,-9.8,28.91,North,0,6.5,11.0,5,0.00,,---,0.00,VWS V14.01,2013-05-12 20:20:00,
2013-05-12 15:21:00,61.9,-9.8,28.91,North,0,7.8,12.8,5,0.00,,---,0.00,VWS V14.01,2013-05-12 20:21:00,
2013-05-12 15:25:00,61.9,-9.8,28.91,WNW,292,9.2,14.8,5,0.00,,---,0.00,VWS V14.01,2013-05-12 20:25:00,
2013-05-12 15:26:00,62.1,-9.7,28.91,NNW,338,6.7,10.5,5,0.00,,---,0.00,VWS V14.01,2013-05-12 20:26:00,
2013-05-12 15:30:00,62.2,-9.6,28.91,WNW,292,8.5,14.3,5,0.00,,---,0.00,VWS V14.01,2013-05-12 20:30:00,
2013-05-12 15:31:00,61.7,-9.9,28.91,NNE,22,5.8,12.8,5,0.00,,---,0.00,VWS V14.01,2013-05-12 20:31:00,
2013-05-12 15:35:00,61.7,-9.9,28.91,NNW,338,8.7,10.7,5,0.00,,---,0.00,VWS V14.01,2013-05-12 20:35:00,
2013-05-12 15:36:00,61.9,-9.8,28.88,NNE,22,7.2,12.3,5,0.00,,---,0.00,VWS V14.01,2013-05-12 20:36:00,
2013-05-12 15:40:00,61.9,-9.8,28.88,NW,315,3.4,12.8,5,0.00,,---,0.00,VWS V14.01,2013-05-12 20:40:00,
2013-05-12 15:41:00,61.9,-9.8,28.88,NNW,338,5.6,12.5,5,0.00,,---,0.00,VWS V14.01,2013-05-12 20:41:00,
2013-05-12 15:45:00,62.4,-9.4,28.88,NE,45,4.0,12.3,5,0.00,,---,0.00,VWS V14.01,2013-05-12 20:45:00,
2013-05-12 15:46:00,62.4,-9.4,28.88,NNW,338,11.2,11.2,5,0.00,,---,0.00,VWS V14.01,2013-05-12 20:46:00,
2013-05-12 15:50:00,62.2,-9.6,28.88,North,0,5.6,12.5,5,0.00,,---,0.00,VWS V14.01,2013-05-12 20:50:00,
2013-05-12 15:51:00,61.7,-9.9,28.88,NNW,338,6.3,15.4,5,0.00,,---,0.00,VWS V14.01,2013-05-12 20:51:00,
2013-05-12 15:55:00,61.3,-10.2,28.88,NW,315,10.1,13.0,5,0.00,,---,0.00,VWS V14.01,2013-05-12 20:55:00,
2013-05-12 15:56:00,61.5,-10.1,28.88,NNW,338,12.8,12.8,5,0.00,,---,0.00,VWS V14.01,2013-05-12 20:56:00,
2013-05-12 16:00:00,61.7,-9.9,28.88,NNW,338,5.6,15.4,5,0.00,,---,0.00,VWS V14.01,2013-05-12 21:00:00,
2013-05-12 16:01:00,61.7,-9.9,28.88,NW,315,7.8,15.2,5,0.00,,---,0.00,VWS V14.01,2013-05-12 21:01:00,
2013-05-12 16:05:00,61.5,-10.1,28.88,North,0,9.2,12.8,5,0.00,,---,0.00,VWS V14.01,2013-05-12 21:05:00,
2013-05-12 16:06:00,62.2,-9.6,28.94,WNW,292,8.5,15.2,5,0.00,,---,0.00,VWS V14.01,2013-05-12 21:06:00,
2013-05-12 16:11:00,62.2,-9.6,28.94,NW,315,7.4,14.5,5,0.00,,---,0.00,VWS V14.01,2013-05-12 21:11:00,
2013-05-12 16:15:00,62.4,-9.4,28.94,NNW,338,11.4,15.4,5,0.00,,---,0.00,VWS V14.01,2013-05-12 21:15:00,
2013-05-12 16:16:00,62.2,-9.6,28.94,NW,315,10.5,14.5,5,0.00,,---,0.00,VWS V14.01,2013-05-12 21:16:00,
2013-05-12 16:20:00,62.4,-9.4,28.94,NNW,338,8.7,14.5,5,0.00,,---,0.00,VWS V14.01,2013-05-12 21:20:00,
2013-05-12 16:21:00,62.2,-9.6,28.91,North,0,7.6,10.1,5,0.00,,---,0.00,VWS V14.01,2013-05-12 21:21:00,
2013-05-12 16:25:00,62.2,-9.6,28.91,NNW,338,10.1,14.5,5,0.00,,---,0.00,VWS V14.01,2013-05-12 21:25:00,
2013-05-12 16:26:00,63.1,-8.9,28.91,NW,315,10.3,17.5,5,0.00,,---,0.00,VWS V14.01,2013-05-12 21:26:00,
2013-05-12 16:30:00,62.6,-9.3,28.91,ENE,68,8.7,10.1,5,0.00,,---,0.00,VWS V14.01,2013-05-12 21:30:00,
2013-05-12 16:31:00,63.1,-8.9,28.91,NNW,338,10.5,14.3,5,0.00,,---,0.00,VWS V14.01,2013-05-12 21:31:00,
2013-05-12 16:35:00,63.1,-8.9,28.91,NNW,338,8.5,17.5,5,0.00,,---,0.00,VWS V14.01,2013-05-12 21:35:00,
2013-05-12 16:36:00,62.6,-9.3,28.91,NNW,338,8.7,8.7,5,0.00,,---,0.00,VWS V14.01,2013-05-12 21:36:00,
2013-05-12 16:40:00,63.1,-8.9,28.91,North,0,8.5,14.3,5,0.00,,---,0.00,VWS V14.01,2013-05-12 21:40:00,
2013-05-12 16:41:00,62.2,-9.6,28.91,North,0,5.8,12.8,5,0.00,,---,0.00,VWS V14.01,2013-05-12 21:41:00,
2013-05-12 16:45:00,62.4,-9.4,28.91,NNE,22,12.8,12.8,5,0.00,,---,0.00,VWS V14.01,2013-05-12 21:45:00,
2013-05-12 16:46:00,62.2,-9.6,28.91,NNW,338,8.1,13.0,5,0.00,,---,0.00,VWS V14.01,2013-05-12 21:46:00,
2013-05-12 16:50:00,62.2,-9.6,28.91,WNW,292,7.4,12.8,5,0.00,,---,0.00,VWS V14.01,2013-05-12 21:50:00,
2013-05-12 16:51:00,61.3,-10.2,28.88,NNW,338,8.7,12.1,5,0.00,,---,0.00,VWS V14.01,2013-05-12 21:51:00,
2013-05-12 16:55:00,62.1,-9.7,28.88,NNW,338,5.8,13.0,5,0.00,,---,0.00,VWS V14.01,2013-05-12 21:55:00,
2013-05-12 16:56:00,61.2,-10.3,28.88,NNW,338,9.8,13.6,5,0.00,,---,0.00,VWS V14.01,2013-05-12 21:56:00,
2013-05-12 17:00:00,61.3,-10.2,28.88,NNW,338,7.4,12.1,5,0.00,,---,0.00,VWS V14.01,2013-05-12 22:00:00,
2013-05-12 17:01:00,61.0,-10.4,28.88,NNW,338,6.5,10.3,5,0.00,,---,0.00,VWS V14.01,2013-05-12 22:01:00,
2013-05-12 17:05:00,61.2,-10.3,28.88,NNW,338,10.1,13.6,5,0.00,,---,0.00,VWS V14.01,2013-05-12 22:05:00,
2013-05-12 17:06:00,61.0,-10.4,28.88,NNW,338,6.5,12.5,5,0.00,,---,0.00,VWS V14.01,2013-05-12 22:06:00,
2013-05-12 17:10:00,61.2,-10.3,28.88,North,0,5.8,10.3,5,0.00,,---,0.00,VWS V14.01,2013-05-12 22:10:00,
2013-05-12 17:11:00,60.8,-10.6,28.88,North,0,5.6,7.6,5,0.00,,---,0.00,VWS V14.01,2013-05-12 22:11:00,
2013-05-12 17:15:00,61.0,-10.4,28.88,North,0,7.6,12.5,5,0.00,,---,0.00,VWS V14.01,2013-05-12 22:15:00,
2013-05-12 17:16:00,60.4,-7.1,28.88,NW,315,8.1,8.7,6,0.00,,---,0.00,VWS V14.01,2013-05-12 22:16:00,
2013-05-12 17:20:00,60.6,-7.0,28.88,NNW,338,5.8,8.5,6,0.00,,---,0.00,VWS V14.01,2013-05-12 22:20:00,
2013-05-12 17:21:00,60.3,-7.3,28.88,NNW,338,7.4,13.0,6,0.00,,---,0.00,VWS V14.01,2013-05-12 22:21:00,
2013-05-12 17:25:00,60.4,-7.1,28.88,NNW,338,8.7,8.7,6,0.00,,---,0.00,VWS V14.01,2013-05-12 22:25:00,
2013-05-12 17:26:00,60.3,-7.3,28.88,NNW,338,7.6,11.0,6,0.00,,---,0.00,VWS V14.01,2013-05-12 22:26:00,
2013-05-12 17:30:00,60.1,-7.4,28.88,NNW,338,10.1,13.0,6,0.00,,---,0.00,VWS V14.01,2013-05-12 22:30:00,
2013-05-12 17:31:00,60.4,-7.1,28.88,NNW,338,3.8,8.5,6,0.00,,---,0.00,VWS V14.01,2013-05-12 22:31:00,
2013-05-12 17:35:00,60.4,-7.1,28.88,NW,315,6.3,11.0,6,0.00,,---,0.00,VWS V14.01,2013-05-12 22:35:00,
2013-05-12 17:36:00,60.1,-7.4,28.88,North,0,8.7,8.7,6,0.00,,---,0.00,VWS V14.01,2013-05-12 22:36:00,
2013-05-12 17:40:00,60.4,-7.1,28.88,NNW,338,8.1,8.5,6,0.00,,---,0.00,VWS V14.01,2013-05-12 22:40:00,
2013-05-12 17:41:00,59.7,-7.7,28.88,NNW,338,6.5,14.5,6,0.00,,---,0.00,VWS V14.01,2013-05-12 22:41:00,
2013-05-12 17:45:00,60.1,-7.4,28.88,NNW,338,14.5,14.5,6,0.00,,---,0.00,VWS V14.01,2013-05-12 22:45:00,
2013-05-12 17:46:00,59.7,-7.7,28.88,NNW,338,4.3,8.7,6,0.00,,---,0.00,VWS V14.01,2013-05-12 22:46:00,
2013-05-12 17:50:00,59.7,-7.7,28.88,NNW,338,6.0,14.5,6,0.00,,---,0.00,VWS V14.01,2013-05-12 22:50:00,
2013-05-12 17:51:00,59.7,-7.7,28.88,NNE,22,4.9,7.6,6,0.00,,---,0.00,VWS V14.01,2013-05-12 22:51:00,
2013-05-12 17:55:00,59.7,-7.7,28.88,NNW,338,5.8,8.7,6,0.00,,---,0.00,VWS V14.01,2013-05-12 22:55:00,
2013-05-12 17:56:00,59.7,-7.7,28.88,NNW,338,8.5,11.0,6,0.00,,---,0.00,VWS V14.01,2013-05-12 22:56:00,
2013-05-12 18:00:00,59.7,-7.7,28.88,NNW,338,3.8,7.6,6,0.00,,---,0.00,VWS V14.01,2013-05-12 23:00:00,
2013-05-12 18:01:00,60.1,-7.4,28.88,NW,315,7.4,10.7,6,0.00,,---,0.00,VWS V14.01,2013-05-12 23:01:00,
2013-05-12 18:05:00,59.9,-7.5,28.88,NNW,338,6.0,11.0,6,0.00,,---,0.00,VWS V14.01,2013-05-12 23:05:00,
2013-05-12 18:06:00,59.7,-7.7,28.88,NNW,338,13.0,13.0,6,0.00,,---,0.00,VWS V14.01,2013-05-12 23:06:00,
2013-05-12 18:10:00,60.1,-7.4,28.88,North,0,5.6,10.7,6,0.00,,---,0.00,VWS V14.01,2013-05-12 23:10:00,
2013-05-12 18:11:00,59.5,-7.8,28.88,NNW,338,6.0,8.5,6,0.00,,---,0.00,VWS V14.01,2013-05-12 23:11:00,
2013-05-12 18:15:00,59.5,-7.8,28.88,North,0,7.2,13.0,6,0.00,,---,0.00,VWS V14.01,2013-05-12 23:15:00,
2013-05-12 18:16:00,59.5,-7.8,28.88,NNE,22,6.5,9.6,6,0.00,,---,0.00,VWS V14.01,2013-05-12 23:16:00,
2013-05-12 18:20:00,59.5,-7.8,28.88,NNW,338,3.6,8.5,6,0.00,,---,0.00,VWS V14.01,2013-05-12 23:20:00,
2013-05-12 18:21:00,59.2,-8.1,28.88,NNW,338,5.8,10.5,6,0.00,,---,0.00,VWS V14.01,2013-05-12 23:21:00,
2013-05-12 18:25:00,59.4,-7.9,28.88,NNW,338,5.6,9.6,6,0.00,,---,0.00,VWS V14.01,2013-05-12 23:25:00,
2013-05-12 18:26:00,59.2,-8.1,28.88,NNW,338,7.4,10.3,6,0.00,,---,0.00,VWS V14.01,2013-05-12 23:26:00,
2013-05-12 18:30:00,59.2,-8.1,28.88,North,0,4.9,10.5,6,0.00,,---,0.00,VWS V14.01,2013-05-12 23:30:00,
2013-05-12 18:31:00,59.2,-8.1,28.88,North,0,2.9,7.2,6,0.00,,---,0.00,VWS V14.01,2013-05-12 23:31:00,
2013-05-12 18:35:00,59.2,-8.1,28.88,NNE,22,5.6,10.3,6,0.00,,---,0.00,VWS V14.01,2013-05-12 23:35:00,
2013-05-12 18:36:00,59.0,-8.2,28.88,NNW,338,4.9,12.3,6,0.00,,---,0.00,VWS V14.01,2013-05-12 23:36:00,
2013-05-12 18:40:00,59.2,-8.1,28.88,NW,315,12.3,12.3,6,0.00,,---,0.00,VWS V14.01,2013-05-12 23:40:00,
2013-05-12 18:41:00,59.0,-8.2,28.88,NNW,338,5.8,7.6,6,0.00,,---,0.00,VWS V14.01,2013-05-12 23:41:00,
2013-05-12 18:45:00,59.0,-8.2,28.88,NNW,338,4.3,12.3,6,0.00,,---,0.00,VWS V14.01,2013-05-12 23:45:00,
2013-05-12 18:46:00,58.8,-8.3,28.88,NW,315,4.0,10.3,6,0.00,,---,0.00,VWS V14.01,2013-05-12 23:46:00,
2013-05-12 18:50:00,59.0,-8.2,28.88,NW,315,9.8,9.8,6,0.00,,---,0.00,VWS V14.01,2013-05-12 23:50:00,
2013-05-12 18:51:00,58.5,-8.6,28.88,North,0,4.3,7.6,6,0.00,,---,0.00,VWS V14.01,2013-05-12 23:51:00,
2013-05-12 18:55:00,58.5,-8.6,28.88,NNW,338,5.6,10.3,6,0.00,,---,0.00,VWS V14.01,2013-05-12 23:55:00,
2013-05-12 18:56:00,58.5,-8.6,28.88,NNW,338,6.0,8.1,6,0.00,,---,0.00,VWS V14.01,2013-05-12 23:56:00,
2013-05-12 19:00:00,58.3,-8.7,28.88,NW,315,7.4,7.6,6,0.00,,---,0.00,VWS V14.01,2013-05-13 00:00:00,
2013-05-12 19:01:00,58.5,-8.6,28.88,NNW,338,5.4,7.8,6,0.00,,---,0.00,VWS V14.01,2013-05-13 00:01:00,
2013-05-12 19:05:00,58.5,-8.6,28.88,North,0,7.2,8.1,6,0.00,,---,0.00,VWS V14.01,2013-05-13 00:05:00,
2013-05-12 19:06:00,58.5,-8.6,28.88,NNW,338,8.5,8.5,6,0.00,,---,0.00,VWS V14.01,2013-05-13 00:06:00,
2013-05-12 19:10:00,58.5,-8.6,28.88,North,0,3.8,8.5,6,0.00,,---,0.00,VWS V14.01,2013-05-13 00:10:00,
2013-05-12 19:11:00,58.3,-8.7,28.88,NNW,338,5.4,8.7,6,0.00,,---,0.00,VWS V14.01,2013-05-13 00:11:00,
2013-05-12 19:15:00,58.5,-8.6,28.88,NNW,338,8.7,8.7,6,0.00,,---,0.00,VWS V14.01,2013-05-13 00:15:00,
2013-05-12 19:16:00,58.3,-8.7,28.88,NNE,22,2.9,5.8,6,0.00,,---,0.00,VWS V14.01,2013-05-13 00:16:00,
2013-05-12 19:20:00,58.3,-8.7,28.88,NNW,338,5.4,8.7,6,0.00,,---,0.00,VWS V14.01,2013-05-13 00:20:00,
2013-05-12 19:21:00,58.1,-8.8,28.88,NE,45,4.3,6.0,6,0.00,,---,0.00,VWS V14.01,2013-05-13 00:21:00,
2013-05-12 19:25:00,58.3,-8.7,28.88,NE,45,4.0,5.8,6,0.00,,---,0.00,VWS V14.01,2013-05-13 00:25:00,
2013-05-12 19:26:00,58.1,-8.8,28.88,NNE,22,5.4,6.7,6,0.00,,---,0.00,VWS V14.01,2013-05-13 00:26:00,
2013-05-12 19:30:00,58.1,-8.8,28.88,NNE,22,3.1,6.0,6,0.00,,---,0.00,VWS V14.01,2013-05-13 00:30:00,
2013-05-12 19:31:00,57.7,-9.1,28.88,NNE,22,2.0,5.8,6,0.00,,---,0.00,VWS V14.01,2013-05-13 00:31:00,
2013-05-12 19:35:00,57.9,-9.0,28.88,NNW,338,5.8,6.7,6,0.00,,---,0.00,VWS V14.01,2013-05-13 00:35:00,
2013-05-12 19:36:00,57.2,-9.5,28.88,NE,45,4.9,7.6,6,0.00,,---,0.00,VWS V14.01,2013-05-13 00:36:00,
2013-05-12 19:40:00,57.6,-9.2,28.88,North,0,2.7,5.8,6,0.00,,---,0.00,VWS V14.01,2013-05-13 00:40:00,
2013-05-12 19:41:00,57.2,-9.5,28.88,North,0,5.6,5.6,6,0.00,,---,0.00,VWS V14.01,2013-05-13 00:41:00,
2013-05-12 19:45:00,57.2,-9.5,28.88,NNW,338,2.9,7.6,6,0.00,,---,0.00,VWS V14.01,2013-05-13 00:45:00,
2013-05-12 19:46:00,56.8,-9.8,28.88,NNE,22,6.5,6.5,6,0.00,,---,0.00,VWS V14.01,2013-05-13 00:46:00,
2013-05-12 19:50:00,57.0,-9.6,28.88,NNE,22,3.1,5.8,6,0.00,,---,0.00,VWS V14.01,2013-05-13 00:50:00,
2013-05-12 19:51:00,56.7,-9.9,28.88,North,0,3.8,3.8,6,0.00,,---,0.00,VWS V14.01,2013-05-13 00:51:00,
2013-05-12 19:55:00,56.8,-9.8,28.88,NNE,22,3.8,6.5,6,0.00,,---,0.00,VWS V14.01,2013-05-13 00:55:00,
2013-05-12 19:56:00,56.3,-10.2,28.88,North,0,2.0,4.3,6,0.00,,---,0.00,VWS V14.01,2013-05-13 00:56:00,
2013-05-12 20:00:00,56.5,-10.0,28.88,NNE,22,1.3,3.8,6,0.00,,---,0.00,VWS V14.01,2013-05-13 01:00:00,
2013-05-12 20:01:00,56.1,-10.3,28.88,NE,45,3.1,4.0,6,0.00,,---,0.00,VWS V14.01,2013-05-13 01:01:00,
2013-05-12 20:05:00,56.3,-10.2,28.88,NNE,22,2.7,4.3,6,0.00,,---,0.00,VWS V14.01,2013-05-13 01:05:00,
2013-05-12 20:06:00,55.9,-10.4,28.88,North,0,2.9,4.3,6,0.00,,---,0.00,VWS V14.01,2013-05-13 01:06:00,
2013-05-12 20:10:00,55.9,-10.4,28.88,North,0,2.7,4.0,6,0.00,,---,0.00,VWS V14.01,2013-05-13 01:10:00,
2013-05-12 20:11:00,55.8,-10.6,28.88,NNE,22,2.9,2.9,6,0.00,,---,0.00,VWS V14.01,2013-05-13 01:11:00,
2013-05-12 20:15:00,55.8,-10.6,28.88,NNE,22,2.0,4.3,6,0.00,,---,0.00,VWS V14.01,2013-05-13 01:15:00,
2013-05-12 20:16:00,55.6,-10.7,28.88,NNE,22,2.2,2.9,6,0.00,,---,0.00,VWS V14.01,2013-05-13 01:16:00,
2013-05-12 20:20:00,55.8,-10.6,28.88,NE,45,2.7,3.1,6,0.00,,---,0.00,VWS V14.01,2013-05-13 01:20:00,
2013-05-12 20:21:00,55.2,-5.1,28.88,NE,45,2.9,3.6,8,0.00,,---,0.00,VWS V14.01,2013-05-13 01:21:00,
2013-05-12 20:25:00,55.4,-7.7,28.88,NNE,22,2.9,4.0,7,0.00,,---,0.00,VWS V14.01,2013-05-13 01:25:00,
2013-05-12 20:26:00,54.7,-0.8,28.88,NE,45,3.1,3.4,10,0.00,,---,0.00,VWS V14.01,2013-05-13 01:26:00,
2013-05-12 20:30:00,55.2,-5.1,28.88,NE,45,3.4,3.6,8,0.00,,---,0.00,VWS V14.01,2013-05-13 01:30:00,
2013-05-12 20:31:00,54.3,-5.8,28.88,NNE,22,2.5,3.4,8,0.00,,---,0.00,VWS V14.01,2013-05-13 01:31:00,
2013-05-12 20:35:00,54.5,-5.6,28.88,NE,45,2.9,3.4,8,0.00,,---,0.00,VWS V14.01,2013-05-13 01:35:00,
2013-05-12 20:36:00,53.8,-6.2,28.88,ENE,68,2.7,2.9,8,0.00,,---,0.00,VWS V14.01,2013-05-13 01:36:00,
2013-05-12 20:40:00,54.0,-6.0,28.88,NE,45,2.7,3.4,8,0.00,,---,0.00,VWS V14.01,2013-05-13 01:40:00,
2013-05-12 20:41:00,53.2,-6.6,28.88,ENE,68,2.9,3.4,8,0.00,,---,0.00,VWS V14.01,2013-05-13 01:41:00,
2013-05-12 20:45:00,53.4,-6.4,28.88,NE,45,2.9,3.1,8,0.00,,---,0.00,VWS V14.01,2013-05-13 01:45:00,
2013-05-12 20:46:00,52.7,-0.3,28.88,NE,45,2.7,3.4,11,0.00,,---,0.00,VWS V14.01,2013-05-13 01:46:00,
2013-05-12 20:50:00,53.1,-0.1,28.88,NE,45,3.4,3.4,11,0.00,,---,0.00,VWS V14.01,2013-05-13 01:50:00,
2013-05-12 20:51:00,52.3,-0.6,28.85,ENE,68,2.7,3.4,11,0.00,,---,0.00,VWS V14.01,2013-05-13 01:51:00,
2013-05-12 20:55:00,52.7,-0.3,28.85,NE,45,2.9,3.4,11,0.00,,---,0.00,VWS V14.01,2013-05-13 01:55:00,
2013-05-12 20:56:00,52.0,2.7,28.85,ENE,68,2.5,2.9,13,0.00,,---,0.00,VWS V14.01,2013-05-13 01:56:00,
2013-05-12 21:00:00,52.2,2.8,28.85,NE,45,2.5,3.4,13,0.00,,---,0.00,VWS V14.01,2013-05-13 02:00:00,
2013-05-12 21:01:00,51.6,4.0,28.85,NE,45,2.5,2.5,14,0.00,,---,0.00,VWS V14.01,2013-05-13 02:01:00,
2013-05-12 21:05:00,51.8,2.5,28.85,ENE,68,2.5,2.9,13,0.00,,---,0.00,VWS V14.01,2013-05-13 02:05:00,
2013-05-12 21:06:00,50.9,10.1,28.85,ENE,68,3.1,3.1,19,0.00,,---,0.00,VWS V14.01,2013-05-13 02:06:00,
2013-05-12 21:10:00,51.6,4.0,28.85,NE,45,2.5,2.7,14,0.00,,---,0.00,VWS V14.01,2013-05-13 02:10:00,
2013-05-12 21:11:00,50.5,17.0,28.85,ENE,68,2.7,3.1,26,0.00,,---,0.00,VWS V14.01,2013-05-13 02:11:00,
2013-05-12 21:15:00,50.5,9.8,28.85,ENE,68,3.1,3.1,19,0.00,,---,0.00,VWS V14.01,2013-05-13 02:15:00,
2013-05-12 21:16:00,50.2,19.2,28.85,ENE,68,2.2,2.5,29,0.00,,---,0.00,VWS V14.01,2013-05-13 02:16:00,
2013-05-12 21:20:00,50.4,17.7,28.85,ENE,68,2.5,3.1,27,0.00,,---,0.00,VWS V14.01,2013-05-13 02:20:00,
2013-05-12 21:21:00,49.5,23.0,28.85,ENE,68,2.2,2.2,35,0.00,,---,0.00,VWS V14.01,2013-05-13 02:21:00,
2013-05-12 21:25:00,50.0,20.6,28.85,ENE,68,2.2,2.5,31,0.00,,---,0.00,VWS V14.01,2013-05-13 02:25:00,
2013-05-12 21:26:00,48.9,23.8,28.85,ENE,68,1.6,1.6,37,0.00,,---,0.00,VWS V14.01,2013-05-13 02:26:00,
2013-05-12 21:30:00,49.3,24.1,28.85,ENE,68,1.6,2.2,37,0.00,,---,0.00,VWS V14.01,2013-05-13 02:30:00,
2013-05-12 21:31:00,48.6,24.7,28.85,East,90,2.2,2.5,39,0.00,,---,0.00,VWS V14.01,2013-05-13 02:31:00,
2013-05-12 21:35:00,48.7,24.3,28.85,ENE,68,2.0,2.0,38,0.00,,---,0.00,VWS V14.01,2013-05-13 02:35:00,
2013-05-12 21:36:00,48.0,24.3,28.88,East,90,2.0,2.5,39,0.00,,---,0.00,VWS V14.01,2013-05-13 02:36:00,
2013-05-12 21:40:00,48.2,24.4,28.88,East,90,2.0,2.5,39,0.00,,---,0.00,VWS V14.01,2013-05-13 02:40:00,
2013-05-12 21:41:00,47.5,23.8,28.88,East,90,2.2,2.5,39,0.00,,---,0.00,VWS V14.01,2013-05-13 02:41:00,
2013-05-12 21:45:00,47.8,24.1,28.88,East,90,2.0,2.7,39,0.00,,---,0.00,VWS V14.01,2013-05-13 02:45:00,
2013-05-12 21:46:00,46.2,22.6,28.88,East,90,2.5,2.5,39,0.00,,---,0.00,VWS V14.01,2013-05-13 02:46:00,
2013-05-12 21:50:00,46.9,23.3,28.88,East,90,1.6,2.5,39,0.00,,---,0.00,VWS V14.01,2013-05-13 02:50:00,
2013-05-12 21:51:00,45.5,22.0,28.88,East,90,2.0,2.2,39,0.00,,---,0.00,VWS V14.01,2013-05-13 02:51:00,
2013-05-12 21:55:00,46.0,22.5,28.88,East,90,1.6,2.5,39,0.00,,---,0.00,VWS V14.01,2013-05-13 02:55:00,
2013-05-12 21:56:00,45.0,22.1,28.88,East,90,1.3,1.6,40,0.00,,---,0.00,VWS V14.01,2013-05-13 02:56:00,
2013-05-12 22:00:00,45.3,22.4,28.88,East,90,1.3,2.2,40,0.00,,---,0.00,VWS V14.01,2013-05-13 03:00:00,
2013-05-12 22:01:00,44.6,22.4,28.88,East,90,2.2,2.2,41,0.00,,---,0.00,VWS V14.01,2013-05-13 03:01:00,
2013-05-12 22:05:00,44.8,22.0,28.88,East,90,0.0,1.6,40,0.00,,---,0.00,VWS V14.01,2013-05-13 03:05:00,
2013-05-12 22:06:00,44.6,22.4,28.88,East,90,2.7,2.7,41,0.00,,---,0.00,VWS V14.01,2013-05-13 03:06:00,
2013-05-12 22:10:00,44.6,22.4,28.88,East,90,2.2,2.5,41,0.00,,---,0.00,VWS V14.01,2013-05-13 03:10:00,
2013-05-12 22:11:00,44.6,22.4,28.88,ENE,68,3.8,3.8,41,0.00,,---,0.00,VWS V14.01,2013-05-13 03:11:00,
2013-05-12 22:15:00,44.6,22.4,28.88,East,90,2.7,2.7,41,0.00,,---,0.00,VWS V14.01,2013-05-13 03:15:00,
2013-05-12 22:16:00,45.0,24.4,28.88,ENE,68,4.0,4.3,44,0.00,,---,0.00,VWS V14.01,2013-05-13 03:16:00,
2013-05-12 22:20:00,44.8,23.1,28.88,ENE,68,3.8,4.0,42,0.00,,---,0.00,VWS V14.01,2013-05-13 03:20:00,
2013-05-12 22:21:00,45.3,25.2,28.88,ENE,68,3.6,4.0,45,0.00,,---,0.00,VWS V14.01,2013-05-13 03:21:00,
2013-05-12 22:25:00,45.3,25.2,28.88,ENE,68,3.8,4.3,45,0.00,,---,0.00,VWS V14.01,2013-05-13 03:25:00,
2013-05-12 22:26:00,44.8,24.8,28.88,ENE,68,3.8,4.3,45,0.00,,---,0.00,VWS V14.01,2013-05-13 03:26:00,
2013-05-12 22:30:00,45.0,24.9,28.88,East,90,3.8,4.0,45,0.00,,---,0.00,VWS V14.01,2013-05-13 03:30:00,
2013-05-12 22:31:00,44.4,25.0,28.88,East,90,4.3,4.3,46,0.00,,---,0.00,VWS V14.01,2013-05-13 03:31:00,
2013-05-12 22:35:00,44.6,24.6,28.88,East,90,4.0,4.3,45,0.00,,---,0.00,VWS V14.01,2013-05-13 03:35:00,
2013-05-12 22:36:00,43.5,24.1,28.88,ENE,68,3.6,4.0,46,0.00,,---,0.00,VWS V14.01,2013-05-13 03:36:00,
2013-05-12 22:40:00,44.1,24.6,28.88,East,90,3.6,4.3,46,0.00,,---,0.00,VWS V14.01,2013-05-13 03:40:00,
2013-05-12 22:41:00,42.6,23.3,28.88,ENE,68,3.4,3.8,46,0.00,,---,0.00,VWS V14.01,2013-05-13 03:41:00,
2013-05-12 22:45:00,43.2,23.8,28.88,ENE,68,3.4,4.0,46,0.00,,---,0.00,VWS V14.01,2013-05-13 03:45:00,
2013-05-12 22:46:00,41.7,22.5,28.88,East,90,2.7,2.9,46,0.00,,---,0.00,VWS V14.01,2013-05-13 03:46:00,
2013-05-12 22:50:00,42.1,22.8,28.88,ENE,68,2.5,3.8,46,0.00,,---,0.00,VWS V14.01,2013-05-13 03:50:00,
2013-05-12 22:51:00,41.2,22.0,28.88,ENE,68,0.9,0.9,46,0.00,,---,0.00,VWS V14.01,2013-05-13 03:51:00,
2013-05-12 22:55:00,41.2,22.0,28.88,ENE,68,0.0,2.9,46,0.00,,---,0.00,VWS V14.01,2013-05-13 03:55:00,
2013-05-12 22:56:00,40.5,21.3,28.88,East,90,0.0,0.0,46,0.00,,---,0.00,VWS V14.01,2013-05-13 03:56:00,
2013-05-12 23:00:00,40.6,22.0,28.88,East,90,0.0,0.9,47,0.00,,---,0.00,VWS V14.01,2013-05-13 04:00:00,
2013-05-12 23:01:00,40.3,21.2,28.88,East,90,0.0,0.0,46,0.00,,---,0.00,VWS V14.01,2013-05-13 04:01:00,
2013-05-12 23:02:00,40.3,21.2,28.88,East,90,0.0,0.0,46,0.00,,---,0.00,VWS V14.01,2013-05-13 04:02:00,
2013-05-12 23:05:00,40.3,21.2,28.88,East,90,0.0,0.0,46,0.00,,---,0.00,VWS V14.01,2013-05-13 04:05:00,
2013-05-12 23:07:00,40.3,21.2,28.88,East,90,2.0,2.0,46,0.00,,---,0.00,VWS V14.01,2013-05-13 04:07:00,
2013-05-12 23:10:00,40.3,21.2,28.88,East,90,0.0,0.0,46,0.00,,---,0.00,VWS V14.01,2013-05-13 04:10:00,
2013-05-12 23:12:00,40.3,21.7,28.88,East,90,2.5,3.4,47,0.00,,---,0.00,VWS V14.01,2013-05-13 04:12:00,
2013-05-12 23:15:00,40.3,21.2,28.88,ENE,68,2.5,2.5,46,0.00,,---,0.00,VWS V14.01,2013-05-13 04:15:00,
2013-05-12 23:17:00,40.1,21.5,28.88,East,90,1.6,3.1,47,0.00,,---,0.00,VWS V14.01,2013-05-13 04:17:00,
2013-05-12 23:20:00,40.3,21.7,28.88,East,90,2.5,3.4,47,0.00,,---,0.00,VWS V14.01,2013-05-13 04:20:00,
2013-05-12 23:22:00,40.3,21.7,28.88,East,90,1.1,2.0,47,0.00,,---,0.00,VWS V14.01,2013-05-13 04:22:00,
2013-05-12 23:25:00,40.1,21.5,28.88,East,90,2.0,3.1,47,0.00,,---,0.00,VWS V14.01,2013-05-13 04:25:00,
2013-05-12 23:27:00,40.5,22.3,28.88,East,90,0.0,1.3,48,0.00,,---,0.00,VWS V14.01,2013-05-13 04:27:00,
2013-05-12 23:30:00,40.3,21.7,28.88,East,90,1.3,2.0,47,0.00,,---,0.00,VWS V14.01,2013-05-13 04:30:00,
2013-05-12 23:32:00,40.1,22.0,28.88,East,90,0.0,0.0,48,0.00,,---,0.00,VWS V14.01,2013-05-13 04:32:00,
2013-05-12 23:35:00,40.6,22.5,28.88,East,90,0.0,1.3,48,0.00,,---,0.00,VWS V14.01,2013-05-13 04:35:00,
2013-05-12 23:37:00,39.4,21.3,28.88,East,90,2.7,2.7,48,0.00,,---,0.00,VWS V14.01,2013-05-13 04:37:00,
2013-05-12 23:40:00,39.9,21.8,28.88,East,90,0.0,0.0,48,0.00,,---,0.00,VWS V14.01,2013-05-13 04:40:00,
2013-05-12 23:42:00,39.2,21.7,28.88,East,90,2.9,2.9,49,0.00,,---,0.00,VWS V14.01,2013-05-13 04:42:00,
2013-05-12 23:45:00,39.4,21.3,28.88,East,90,2.7,2.7,48,0.00,,---,0.00,VWS V14.01,2013-05-13 04:45:00,
2013-05-12 23:47:00,39.7,22.2,28.85,East,90,2.9,3.1,49,0.00,,---,0.00,VWS V14.01,2013-05-13 04:47:00,
2013-05-12 23:50:00,39.4,21.8,28.88,East,90,2.9,2.9,49,0.00,,---,0.00,VWS V14.01,2013-05-13 04:50:00,
2013-05-12 23:52:00,40.1,23.0,28.85,East,90,3.6,3.6,50,0.00,,---,0.00,VWS V14.01,2013-05-13 04:52:00,
2013-05-12 23:55:00,39.7,22.2,28.85,East,90,3.1,3.1,49,0.00,,---,0.00,VWS V14.01,2013-05-13 04:55:00,
2013-05-12 23:57:00,41.0,25.2,28.85,ENE,68,3.1,3.6,53,0.00,,---,0.00,VWS V14.01,2013-05-13 04:57:00,